Observation data for South Plains 3ENE on 02/14/2020      Previous  Date  Next       Current Mesonet Observations  Soil Data  Daily Summary Page  Observations in Plain Language
KSP2 140600Z 09010KT M06/M10 A3029 RMK A01 T10601102  RH  072%=      5-min Rain = 0
KSP2 140601Z 09010KT M06/M10 A3029 RMK A01 T10601102  RH  072%=      5-min Rain = 0
KSP2 140602Z 09010KT M06/M10 A3029 RMK A01 T10601101  RH  072%=      5-min Rain = 0
KSP2 140603Z 08009KT M06/M10 A303 RMK A01 T10601101  RH  073%=      5-min Rain = 0
KSP2 140604Z 08010KT M06/M10 A303 RMK A01 T10611101  RH  073%=      5-min Rain = 0
KSP2 140605Z 08008KT M06/M10 A3029 RMK A01 T10611101  RH  073%=      5-min Rain = 0
KSP2 140606Z 08008KT M06/M10 A3029 RMK A01 T10611101  RH  073%=      5-min Rain = 0
KSP2 140607Z 09010KT M06/M10 A3029 RMK A01 T10611101  RH  074%=      5-min Rain = 0
KSP2 140608Z 08010KT M06/M10 A3029 RMK A01 T10621101  RH  074%=      5-min Rain = 0
KSP2 140609Z 08009KT M06/M10 A3029 RMK A01 T10621101  RH  074%=      5-min Rain = 0
KSP2 140610Z 08008KT M06/M10 A3029 RMK A01 T10621101  RH  074%=      5-min Rain = 0
KSP2 140611Z 08009KT M06/M10 A3029 RMK A01 T10621101  RH  074%=      5-min Rain = 0
KSP2 140612Z 08008KT M06/M10 A3029 RMK A01 T10621101  RH  074%=      5-min Rain = 0
KSP2 140613Z 09010KT M06/M10 A3029 RMK A01 T10621100  RH  074%=      5-min Rain = 0
KSP2 140614Z 08009KT M06/M10 A3029 RMK A01 T10621100  RH  074%=      5-min Rain = 0
KSP2 140615Z 09008KT M06/M10 A3029 RMK A01 T10621101  RH  074%=      5-min Rain = 0
KSP2 140616Z 08007KT M06/M10 A3029 RMK A01 T10621101  RH  074%=      5-min Rain = 0
KSP2 140617Z 09008KT M06/M10 A3029 RMK A01 T10631101  RH  075%=      5-min Rain = 0
KSP2 140618Z 09009KT M06/M10 A3029 RMK A01 T10621100  RH  075%=      5-min Rain = 0
KSP2 140619Z 09009KT M06/M10 A3029 RMK A01 T10631100  RH  075%=      5-min Rain = 0
KSP2 140620Z 09010KT M06/M10 A3029 RMK A01 T10621100  RH  075%=      5-min Rain = 0
KSP2 140621Z 09009KT M06/M10 A3029 RMK A01 T10631101  RH  074%=      5-min Rain = 0
KSP2 140622Z 09009KT M06/M10 A3029 RMK A01 T10631101  RH  074%=      5-min Rain = 0
KSP2 140623Z 09008KT M06/M10 A3029 RMK A01 T10631101  RH  074%=      5-min Rain = 0
KSP2 140624Z 08009KT M06/M10 A3029 RMK A01 T10631100  RH  075%=      5-min Rain = 0
KSP2 140625Z 08009KT M06/M10 A3029 RMK A01 T10631101  RH  075%=      5-min Rain = 0
KSP2 140626Z 08009KT M06/M10 A303 RMK A01 T10631101  RH  075%=      5-min Rain = 0
KSP2 140627Z 08008KT M06/M10 A3029 RMK A01 T10631101  RH  075%=      5-min Rain = 0
KSP2 140628Z 08009KT M06/M10 A3029 RMK A01 T10631100  RH  075%=      5-min Rain = 0
KSP2 140629Z 08010KT M06/M10 A3029 RMK A01 T10641101  RH  075%=      5-min Rain = 0
KSP2 140630Z 08009KT M06/M10 A3029 RMK A01 T10641100  RH  075%=      5-min Rain = 0
KSP2 140631Z 09008KT M06/M10 A303 RMK A01 T10631100  RH  075%=      5-min Rain = 0
KSP2 140632Z 09009KT M06/M10 A303 RMK A01 T10641100  RH  075%=      5-min Rain = 0
KSP2 140633Z 09008KT M06/M10 A3029 RMK A01 T10641100  RH  076%=      5-min Rain = 0
KSP2 140634Z 09009KT M06/M10 A3029 RMK A01 T10641100  RH  076%=      5-min Rain = 0
KSP2 140635Z 09009KT M06/M10 A303 RMK A01 T10641100  RH  076%=      5-min Rain = 0
KSP2 140636Z 09008KT M06/M10 A303 RMK A01 T10641100  RH  076%=      5-min Rain = 0
KSP2 140637Z 09008KT M07/M10 A3029 RMK A01 T10651100  RH  076%=      5-min Rain = 0
KSP2 140638Z 09008KT M07/M10 A3029 RMK A01 T10651100  RH  076%=      5-min Rain = 0
KSP2 140639Z 09007KT M07/M10 A3029 RMK A01 T10651100  RH  077%=      5-min Rain = 0
KSP2 140640Z 09007KT M07/M10 A3029 RMK A01 T10661100  RH  077%=      5-min Rain = 0
KSP2 140641Z 09008KT M07/M10 A3029 RMK A01 T10661100  RH  077%=      5-min Rain = 0
KSP2 140642Z 09009KT M07/M10 A3029 RMK A01 T10661099  RH  077%=      5-min Rain = 0
KSP2 140643Z 09008KT M07/M10 A3029 RMK A01 T10661099  RH  077%=      5-min Rain = 0
KSP2 140644Z 09008KT M07/M10 A3029 RMK A01 T10661099  RH  078%=      5-min Rain = 0
KSP2 140645Z 09009KT M07/M10 A303 RMK A01 T10661099  RH  078%=      5-min Rain = 0
KSP2 140646Z 09008KT M07/M10 A303 RMK A01 T10661099  RH  078%=      5-min Rain = 0
KSP2 140647Z 09008KT M07/M10 A303 RMK A01 T10661099  RH  077%=      5-min Rain = 0
KSP2 140648Z 09009KT M07/M10 A303 RMK A01 T10661099  RH  078%=      5-min Rain = 0
KSP2 140649Z 09008KT M07/M10 A303 RMK A01 T10661099  RH  078%=      5-min Rain = 0
KSP2 140650Z 09008KT M07/M10 A303 RMK A01 T10671099  RH  078%=      5-min Rain = 0
KSP2 140651Z 09007KT M07/M10 A303 RMK A01 T10671099  RH  078%=      5-min Rain = 0
KSP2 140652Z 09008KT M07/M10 A303 RMK A01 T10671099  RH  078%=      5-min Rain = 0
KSP2 140653Z 09008KT M07/M10 A303 RMK A01 T10671099  RH  078%=      5-min Rain = 0
KSP2 140654Z 09007KT M07/M10 A303 RMK A01 T10671099  RH  078%=      5-min Rain = 0
KSP2 140655Z 09008KT M07/M10 A303 RMK A01 T10671099  RH  078%=      5-min Rain = 0
KSP2 140656Z 09008KT M07/M10 A303 RMK A01 T10671099  RH  078%=      5-min Rain = 0
KSP2 140657Z 09008KT M07/M10 A303 RMK A01 T10671099  RH  078%=      5-min Rain = 0
KSP2 140658Z 09007KT M07/M10 A303 RMK A01 T10671099  RH  078%=      5-min Rain = 0
KSP2 140659Z 08007KT M07/M10 A303 RMK A01 T10671099  RH  078%=      5-min Rain = 0
KSP2 140700Z 09007KT M07/M10 A303 RMK A01 T10681099  RH  079%=      5-min Rain = 0
KSP2 140701Z 08006KT M07/M10 A303 RMK A01 T10681099  RH  079%=      5-min Rain = 0
KSP2 140702Z 08007KT M07/M10 A303 RMK A01 T10691099  RH  079%=      5-min Rain = 0
KSP2 140703Z 09008KT M07/M10 A303 RMK A01 T10691099  RH  079%=      5-min Rain = 0
KSP2 140704Z 08006KT M07/M10 A303 RMK A01 T10691099  RH  079%=      5-min Rain = 0
KSP2 140705Z 08008KT M07/M10 A303 RMK A01 T10681098  RH  079%=      5-min Rain = 0
KSP2 140706Z 08008KT M07/M10 A303 RMK A01 T10691099  RH  079%=      5-min Rain = 0
KSP2 140707Z 08007KT M07/M10 A303 RMK A01 T10691099  RH  079%=      5-min Rain = 0
KSP2 140708Z 09007KT M07/M10 A303 RMK A01 T10691099  RH  079%=      5-min Rain = 0
KSP2 140709Z 08007KT M07/M10 A303 RMK A01 T10681098  RH  079%=      5-min Rain = 0
KSP2 140710Z 09007KT M07/M10 A303 RMK A01 T10691099  RH  079%=      5-min Rain = 0
KSP2 140711Z 09007KT M07/M10 A303 RMK A01 T10691099  RH  079%=      5-min Rain = 0
KSP2 140712Z 09007KT M07/M10 A303 RMK A01 T10691099  RH  079%=      5-min Rain = 0
KSP2 140713Z 09006KT M07/M10 A303 RMK A01 T10691099  RH  079%=      5-min Rain = 0
KSP2 140714Z 09007KT M07/M10 A303 RMK A01 T10701099  RH  079%=      5-min Rain = 0
KSP2 140715Z 09006KT M07/M10 A303 RMK A01 T10691099  RH  080%=      5-min Rain = 0
KSP2 140716Z 09006KT M07/M10 A303 RMK A01 T10701099  RH  080%=      5-min Rain = 0
KSP2 140717Z 08006KT M07/M10 A303 RMK A01 T10701099  RH  080%=      5-min Rain = 0
KSP2 140718Z 09006KT M07/M10 A303 RMK A01 T10711099  RH  080%=      5-min Rain = 0
KSP2 140719Z 08007KT M07/M10 A303 RMK A01 T10711099  RH  080%=      5-min Rain = 0
KSP2 140720Z 08006KT M07/M10 A303 RMK A01 T10711099  RH  080%=      5-min Rain = 0
KSP2 140721Z 08006KT M07/M10 A303 RMK A01 T10701099  RH  080%=      5-min Rain = 0
KSP2 140722Z 08006KT M07/M10 A303 RMK A01 T10701099  RH  080%=      5-min Rain = 0
KSP2 140723Z 08007KT M07/M10 A303 RMK A01 T10701099  RH  080%=      5-min Rain = 0
KSP2 140724Z 09006KT M07/M10 A303 RMK A01 T10701099  RH  080%=      5-min Rain = 0
KSP2 140725Z 08007KT M07/M10 A303 RMK A01 T10701099  RH  080%=      5-min Rain = 0
KSP2 140726Z 09008KT M07/M10 A303 RMK A01 T10711100  RH  080%=      5-min Rain = 0
KSP2 140727Z 09007KT M07/M10 A303 RMK A01 T10711100  RH  080%=      5-min Rain = 0
KSP2 140728Z 09007KT M07/M10 A303 RMK A01 T10701099  RH  080%=      5-min Rain = 0
KSP2 140729Z 09007KT M07/M10 A303 RMK A01 T10701099  RH  080%=      5-min Rain = 0
KSP2 140730Z 09007KT M07/M10 A303 RMK A01 T10711100  RH  080%=      5-min Rain = 0
KSP2 140731Z 08006KT M07/M10 A303 RMK A01 T10711100  RH  080%=      5-min Rain = 0
KSP2 140732Z 08007KT M07/M10 A303 RMK A01 T10711100  RH  080%=      5-min Rain = 0
KSP2 140733Z 09007KT M07/M10 A303 RMK A01 T10711101  RH  079%=      5-min Rain = 0
KSP2 140734Z 09008KT M07/M10 A303 RMK A01 T10711101  RH  079%=      5-min Rain = 0
KSP2 140735Z 09008KT M07/M10 A303 RMK A01 T10711101  RH  079%=      5-min Rain = 0
KSP2 140736Z 08007KT M07/M10 A303 RMK A01 T10711101  RH  079%=      5-min Rain = 0
KSP2 140737Z 09007KT M07/M10 A303 RMK A01 T10711101  RH  079%=      5-min Rain = 0
KSP2 140738Z 08007KT M07/M10 A303 RMK A01 T10711101  RH  079%=      5-min Rain = 0
KSP2 140739Z 08007KT M07/M10 A303 RMK A01 T10721101  RH  079%=      5-min Rain = 0
KSP2 140740Z 09006KT M07/M10 A303 RMK A01 T10721101  RH  080%=      5-min Rain = 0
KSP2 140741Z 09006KT M07/M10 A303 RMK A01 T10721101  RH  080%=      5-min Rain = 0
KSP2 140742Z 09006KT M07/M10 A303 RMK A01 T10721101  RH  080%=      5-min Rain = 0
KSP2 140743Z 09007KT M07/M10 A303 RMK A01 T10721101  RH  080%=      5-min Rain = 0
KSP2 140744Z 09007KT M07/M10 A303 RMK A01 T10721101  RH  080%=      5-min Rain = 0
KSP2 140745Z 08006KT M07/M10 A303 RMK A01 T10721102  RH  080%=      5-min Rain = 0
KSP2 140746Z 09006KT M07/M10 A303 RMK A01 T10721102  RH  079%=      5-min Rain = 0
KSP2 140747Z 08006KT M07/M10 A303 RMK A01 T10731102  RH  079%=      5-min Rain = 0
KSP2 140748Z 08007KT M07/M10 A303 RMK A01 T10731102  RH  080%=      5-min Rain = 0
KSP2 140749Z 08007KT M07/M10 A303 RMK A01 T10731102  RH  080%=      5-min Rain = 0
KSP2 140750Z 08007KT M07/M10 A303 RMK A01 T10731102  RH  080%=      5-min Rain = 0
KSP2 140751Z 08006KT M07/M10 A303 RMK A01 T10731102  RH  080%=      5-min Rain = 0
KSP2 140752Z 08006KT M07/M10 A303 RMK A01 T10731102  RH  080%=      5-min Rain = 0
KSP2 140753Z 09007KT M07/M10 A303 RMK A01 T10731102  RH  080%=      5-min Rain = 0
KSP2 140754Z 08005KT M07/M10 A3031 RMK A01 T10741102  RH  080%=      5-min Rain = 0
KSP2 140755Z 08007KT M07/M10 A303 RMK A01 T10741102  RH  080%=      5-min Rain = 0
KSP2 140756Z 09006KT M07/M10 A303 RMK A01 T10731102  RH  080%=      5-min Rain = 0
KSP2 140757Z 08006KT M07/M10 A3031 RMK A01 T10731102  RH  080%=      5-min Rain = 0
KSP2 140758Z 08006KT M07/M10 A3031 RMK A01 T10731102  RH  080%=      5-min Rain = 0
KSP2 140759Z 08005KT M07/M10 A3031 RMK A01 T10731102  RH  080%=      5-min Rain = 0
KSP2 140800Z 08005KT M07/M10 A3031 RMK A01 T10731102  RH  080%=      5-min Rain = 0
KSP2 140801Z 09006KT M07/M10 A3031 RMK A01 T10741103  RH  080%=      5-min Rain = 0
KSP2 140802Z 08005KT M08/M10 A3031 RMK A01 T10751103  RH  080%=      5-min Rain = 0
KSP2 140803Z 09006KT M08/M10 A3031 RMK A01 T10751103  RH  080%=      5-min Rain = 0
KSP2 140804Z 09005KT M08/M10 A3031 RMK A01 T10751103  RH  081%=      5-min Rain = 0
KSP2 140805Z 09005KT M08/M10 A3031 RMK A01 T10751103  RH  081%=      5-min Rain = 0
KSP2 140806Z 08005KT M08/M10 A3031 RMK A01 T10751102  RH  081%=      5-min Rain = 0
KSP2 140807Z 08004KT M08/M10 A3031 RMK A01 T10751102  RH  081%=      5-min Rain = 0
KSP2 140808Z 08005KT M08/M10 A3031 RMK A01 T10751102  RH  081%=      5-min Rain = 0
KSP2 140809Z 08006KT M08/M10 A3031 RMK A01 T10761103  RH  081%=      5-min Rain = 0
KSP2 140810Z 08005KT M08/M10 A3031 RMK A01 T10761103  RH  081%=      5-min Rain = 0
KSP2 140811Z 08006KT M08/M10 A3031 RMK A01 T10751103  RH  081%=      5-min Rain = 0
KSP2 140812Z 08005KT M08/M10 A3031 RMK A01 T10751103  RH  081%=      5-min Rain = 0
KSP2 140813Z 08006KT M08/M10 A3031 RMK A01 T10761103  RH  081%=      5-min Rain = 0
KSP2 140814Z 08004KT M08/M10 A3031 RMK A01 T10751103  RH  081%=      5-min Rain = 0
KSP2 140815Z 08006KT M08/M10 A3031 RMK A01 T10761103  RH  081%=      5-min Rain = 0
KSP2 140816Z 09005KT M08/M10 A3031 RMK A01 T10761103  RH  081%=      5-min Rain = 0
KSP2 140817Z 08005KT M08/M10 A3031 RMK A01 T10761103  RH  081%=      5-min Rain = 0
KSP2 140818Z 08006KT M08/M10 A3031 RMK A01 T10761103  RH  081%=      5-min Rain = 0
KSP2 140819Z 08005KT M08/M10 A3031 RMK A01 T10761104  RH  081%=      5-min Rain = 0
KSP2 140820Z 08005KT M08/M10 A3031 RMK A01 T10761103  RH  081%=      5-min Rain = 0
KSP2 140821Z 08005KT M08/M10 A3031 RMK A01 T10761103  RH  081%=      5-min Rain = 0
KSP2 140822Z 08005KT M08/M10 A3031 RMK A01 T10771104  RH  081%=      5-min Rain = 0
KSP2 140823Z 08006KT M08/M10 A3031 RMK A01 T10771103  RH  081%=      5-min Rain = 0
KSP2 140824Z 08006KT M08/M10 A3031 RMK A01 T10771104  RH  081%=      5-min Rain = 0
KSP2 140825Z 08005KT M08/M10 A3031 RMK A01 T10761104  RH  081%=      5-min Rain = 0
KSP2 140826Z 08005KT M08/M10 A3031 RMK A01 T10761104  RH  081%=      5-min Rain = 0
KSP2 140827Z 08005KT M08/M10 A3031 RMK A01 T10761104  RH  081%=      5-min Rain = 0
KSP2 140828Z 09005KT M08/M10 A3031 RMK A01 T10761104  RH  080%=      5-min Rain = 0
KSP2 140829Z 09005KT M08/M10 A3031 RMK A01 T10761104  RH  081%=      5-min Rain = 0
KSP2 140830Z 09005KT M08/M10 A3031 RMK A01 T10761104  RH  081%=      5-min Rain = 0
KSP2 140831Z 09005KT M08/M10 A3031 RMK A01 T10771104  RH  081%=      5-min Rain = 0
KSP2 140832Z 09004KT M08/M10 A3031 RMK A01 T10771104  RH  081%=      5-min Rain = 0
KSP2 140833Z 09005KT M08/M11 A3031 RMK A01 T10781105  RH  081%=      5-min Rain = 0
KSP2 140834Z 09004KT M08/M10 A3031 RMK A01 T10781104  RH  081%=      5-min Rain = 0
KSP2 140835Z 09005KT M08/M10 A3031 RMK A01 T10781104  RH  081%=      5-min Rain = 0
KSP2 140836Z 08005KT M08/M10 A3031 RMK A01 T10781104  RH  081%=      5-min Rain = 0
KSP2 140837Z 09005KT M08/M10 A3031 RMK A01 T10781104  RH  082%=      5-min Rain = 0
KSP2 140838Z 09005KT M08/M10 A3031 RMK A01 T10781104  RH  082%=      5-min Rain = 0
KSP2 140839Z 09005KT M08/M10 A3031 RMK A01 T10791104  RH  082%=      5-min Rain = 0
KSP2 140840Z 09005KT M08/M10 A3031 RMK A01 T10781104  RH  082%=      5-min Rain = 0
KSP2 140841Z 09005KT M08/M10 A3031 RMK A01 T10791104  RH  082%=      5-min Rain = 0
KSP2 140842Z 09005KT M08/M10 A3031 RMK A01 T10791104  RH  082%=      5-min Rain = 0
KSP2 140843Z 09005KT M08/M10 A3031 RMK A01 T10781104  RH  082%=      5-min Rain = 0
KSP2 140844Z 09005KT M08/M10 A3031 RMK A01 T10791104  RH  082%=      5-min Rain = 0
KSP2 140845Z 09005KT M08/M11 A3031 RMK A01 T10791105  RH  082%=      5-min Rain = 0
KSP2 140846Z 08005KT M08/M10 A3031 RMK A01 T10781104  RH  082%=      5-min Rain = 0
KSP2 140847Z 08005KT M08/M10 A3031 RMK A01 T10791104  RH  082%=      5-min Rain = 0
KSP2 140848Z 08005KT M08/M11 A3031 RMK A01 T10791105  RH  082%=      5-min Rain = 0
KSP2 140849Z 08005KT M08/M10 A3031 RMK A01 T10791104  RH  082%=      5-min Rain = 0
KSP2 140850Z 08005KT M08/M11 A3031 RMK A01 T10801105  RH  082%=      5-min Rain = 0
KSP2 140851Z 07005KT M08/M11 A3031 RMK A01 T10801105  RH  082%=      5-min Rain = 0
KSP2 140852Z 08005KT M08/M10 A3031 RMK A01 T10791104  RH  082%=      5-min Rain = 0
KSP2 140853Z 08005KT M08/M10 A3031 RMK A01 T10791104  RH  082%=      5-min Rain = 0
KSP2 140854Z 07005KT M08/M10 A3031 RMK A01 T10791104  RH  082%=      5-min Rain = 0
KSP2 140855Z 08005KT M08/M10 A3031 RMK A01 T10791104  RH  082%=      5-min Rain = 0
KSP2 140856Z 08005KT M08/M10 A3031 RMK A01 T10791104  RH  082%=      5-min Rain = 0
KSP2 140857Z 08005KT M08/M10 A3031 RMK A01 T10781104  RH  082%=      5-min Rain = 0
KSP2 140858Z 08005KT M08/M10 A3031 RMK A01 T10781104  RH  082%=      5-min Rain = 0
KSP2 140859Z 08005KT M08/M10 A3031 RMK A01 T10781104  RH  082%=      5-min Rain = 0
KSP2 140900Z 08005KT M08/M11 A3031 RMK A01 T10791105  RH  082%=      5-min Rain = 0
KSP2 140901Z 08004KT M08/M11 A3031 RMK A01 T10791105  RH  082%=      5-min Rain = 0
KSP2 140902Z 08004KT M08/M11 A3031 RMK A01 T10791105  RH  082%=      5-min Rain = 0
KSP2 140903Z 08004KT M08/M11 A3031 RMK A01 T10801105  RH  082%=      5-min Rain = 0
KSP2 140904Z 08005KT M08/M11 A3031 RMK A01 T10801105  RH  083%=      5-min Rain = 0
KSP2 140905Z 08005KT M08/M10 A3031 RMK A01 T10791104  RH  083%=      5-min Rain = 0
KSP2 140906Z 08005KT M08/M10 A3031 RMK A01 T10801104  RH  082%=      5-min Rain = 0
KSP2 140907Z 08005KT M08/M10 A3031 RMK A01 T10801104  RH  083%=      5-min Rain = 0
KSP2 140908Z 08005KT M08/M10 A3031 RMK A01 T10791104  RH  083%=      5-min Rain = 0
KSP2 140909Z 08004KT M08/M10 A3031 RMK A01 T10791104  RH  083%=      5-min Rain = 0
KSP2 140910Z 08005KT M08/M10 A3031 RMK A01 T10801104  RH  083%=      5-min Rain = 0
KSP2 140911Z 08005KT M08/M10 A3031 RMK A01 T10791104  RH  083%=      5-min Rain = 0
KSP2 140912Z 07005KT M08/M10 A3031 RMK A01 T10791103  RH  083%=      5-min Rain = 0
KSP2 140913Z 08005KT M08/M10 A3031 RMK A01 T10791103  RH  083%=      5-min Rain = 0
KSP2 140914Z 07005KT M08/M10 A3031 RMK A01 T10791102  RH  083%=      5-min Rain = 0
KSP2 140915Z 08005KT M08/M10 A3031 RMK A01 T10781102  RH  083%=      5-min Rain = 0
KSP2 140916Z 08005KT M08/M10 A3031 RMK A01 T10781102  RH  083%=      5-min Rain = 0
KSP2 140917Z 08004KT M08/M10 A3031 RMK A01 T10771102  RH  083%=      5-min Rain = 0
KSP2 140918Z 08005KT M08/M10 A3031 RMK A01 T10771101  RH  083%=      5-min Rain = 0
KSP2 140919Z 08005KT M08/M10 A3031 RMK A01 T10761101  RH  083%=      5-min Rain = 0
KSP2 140920Z 08004KT M08/M10 A3031 RMK A01 T10761101  RH  082%=      5-min Rain = 0
KSP2 140921Z 08004KT M08/M10 A3031 RMK A01 T10761101  RH  082%=      5-min Rain = 0
KSP2 140922Z 08004KT M08/M10 A3031 RMK A01 T10751100  RH  082%=      5-min Rain = 0
KSP2 140923Z 08005KT M08/M10 A3031 RMK A01 T10761101  RH  082%=      5-min Rain = 0
KSP2 140924Z 08005KT M08/M10 A3031 RMK A01 T10751101  RH  082%=      5-min Rain = 0
KSP2 140925Z 08004KT M07/M10 A3031 RMK A01 T10741100  RH  082%=      5-min Rain = 0
KSP2 140926Z 08004KT M07/M10 A3031 RMK A01 T10741099  RH  082%=      5-min Rain = 0
KSP2 140927Z 07004KT M07/M10 A3031 RMK A01 T10741099  RH  082%=      5-min Rain = 0
KSP2 140928Z 08004KT M07/M10 A3031 RMK A01 T10741099  RH  082%=      5-min Rain = 0
KSP2 140929Z 08003KT M07/M10 A3031 RMK A01 T10731100  RH  082%=      5-min Rain = 0
KSP2 140930Z 08002KT M07/M10 A3031 RMK A01 T10741100  RH  082%=      5-min Rain = 0
KSP2 140931Z 08003KT M07/M10 A3031 RMK A01 T10741100  RH  082%=      5-min Rain = 0
KSP2 140932Z 08003KT M07/M10 A3031 RMK A01 T10741100  RH  082%=      5-min Rain = 0
KSP2 140933Z 09004KT M07/M10 A3031 RMK A01 T10741100  RH  082%=      5-min Rain = 0
KSP2 140934Z 09003KT M07/M10 A3031 RMK A01 T10741100  RH  081%=      5-min Rain = 0
KSP2 140935Z 08004KT M07/M10 A3031 RMK A01 T10731101  RH  081%=      5-min Rain = 0
KSP2 140936Z 08004KT M07/M10 A3031 RMK A01 T10731100  RH  081%=      5-min Rain = 0
KSP2 140937Z 08004KT M07/M10 A3031 RMK A01 T10731101  RH  081%=      5-min Rain = 0
KSP2 140938Z 08004KT M07/M10 A3031 RMK A01 T10731101  RH  081%=      5-min Rain = 0
KSP2 140939Z 08004KT M07/M10 A3031 RMK A01 T10731101  RH  081%=      5-min Rain = 0
KSP2 140940Z 08003KT M07/M10 A3031 RMK A01 T10731100  RH  081%=      5-min Rain = 0
KSP2 140941Z 08004KT M07/M10 A3031 RMK A01 T10731100  RH  081%=      5-min Rain = 0
KSP2 140942Z 07004KT M07/M10 A3031 RMK A01 T10731100  RH  081%=      5-min Rain = 0
KSP2 140943Z 07004KT M07/M10 A3031 RMK A01 T10731100  RH  081%=      5-min Rain = 0
KSP2 140944Z 08003KT M07/M10 A3031 RMK A01 T10731100  RH  081%=      5-min Rain = 0
KSP2 140945Z 08004KT M07/M10 A3031 RMK A01 T10731100  RH  081%=      5-min Rain = 0
KSP2 140946Z 08004KT M07/M10 A3031 RMK A01 T10731101  RH  081%=      5-min Rain = 0
KSP2 140947Z 08004KT M07/M10 A3031 RMK A01 T10731101  RH  081%=      5-min Rain = 0
KSP2 140948Z 08003KT M07/M10 A3031 RMK A01 T10731100  RH  081%=      5-min Rain = 0
KSP2 140949Z 08003KT M07/M10 A3031 RMK A01 T10731099  RH  081%=      5-min Rain = 0
KSP2 140950Z 08003KT M07/M10 A3031 RMK A01 T10731100  RH  082%=      5-min Rain = 0
KSP2 140951Z 08003KT M07/M10 A3031 RMK A01 T10741100  RH  082%=      5-min Rain = 0
KSP2 140952Z 07003KT M07/M10 A3031 RMK A01 T10741100  RH  082%=      5-min Rain = 0
KSP2 140953Z 08004KT M08/M10 A3031 RMK A01 T10751100  RH  082%=      5-min Rain = 0
KSP2 140954Z 08004KT M08/M10 A3031 RMK A01 T10751100  RH  082%=      5-min Rain = 0
KSP2 140955Z 07004KT M07/M10 A3031 RMK A01 T10741100  RH  082%=      5-min Rain = 0
KSP2 140956Z 07003KT M07/M10 A3031 RMK A01 T10741100  RH  082%=      5-min Rain = 0
KSP2 140957Z 08003KT M08/M10 A3031 RMK A01 T10751101  RH  082%=      5-min Rain = 0
KSP2 140958Z 08003KT M08/M10 A3031 RMK A01 T10751100  RH  082%=      5-min Rain = 0
KSP2 140959Z 08004KT M08/M10 A3031 RMK A01 T10761101  RH  082%=      5-min Rain = 0
KSP2 141000Z 07004KT M08/M10 A3031 RMK A01 T10761102  RH  082%=      5-min Rain = 0
KSP2 141001Z 08004KT M08/M10 A3031 RMK A01 T10761102  RH  082%=      5-min Rain = 0
KSP2 141002Z 08003KT M08/M10 A3031 RMK A01 T10771103  RH  082%=      5-min Rain = 0
KSP2 141003Z 08004KT M08/M10 A3031 RMK A01 T10781103  RH  082%=      5-min Rain = 0
KSP2 141004Z 07004KT M08/M10 A3031 RMK A01 T10781103  RH  082%=      5-min Rain = 0
KSP2 141005Z 08004KT M08/M10 A3031 RMK A01 T10781103  RH  082%=      5-min Rain = 0
KSP2 141006Z 08005KT M08/M10 A3031 RMK A01 T10781103  RH  082%=      5-min Rain = 0
KSP2 141007Z 08005KT M08/M10 A3031 RMK A01 T10781103  RH  082%=      5-min Rain = 0
KSP2 141008Z 08004KT M08/M10 A3031 RMK A01 T10781103  RH  083%=      5-min Rain = 0
KSP2 141009Z 08005KT M08/M10 A3031 RMK A01 T10781103  RH  083%=      5-min Rain = 0
KSP2 141010Z 08004KT M08/M10 A3031 RMK A01 T10781103  RH  083%=      5-min Rain = 0
KSP2 141011Z 08005KT M08/M10 A3031 RMK A01 T10781103  RH  083%=      5-min Rain = 0
KSP2 141012Z 09005KT M08/M10 A3031 RMK A01 T10791103  RH  083%=      5-min Rain = 0
KSP2 141013Z 09004KT M08/M10 A3031 RMK A01 T10781103  RH  082%=      5-min Rain = 0
KSP2 141014Z 09004KT M08/M10 A3031 RMK A01 T10791104  RH  082%=      5-min Rain = 0
KSP2 141015Z 09004KT M08/M10 A3031 RMK A01 T10791104  RH  082%=      5-min Rain = 0
KSP2 141016Z 09004KT M08/M10 A3031 RMK A01 T10791104  RH  082%=      5-min Rain = 0
KSP2 141017Z 08004KT M08/M10 A3031 RMK A01 T10791104  RH  082%=      5-min Rain = 0
KSP2 141018Z 08004KT M08/M10 A3031 RMK A01 T10791104  RH  082%=      5-min Rain = 0
KSP2 141019Z 08005KT M08/M10 A3031 RMK A01 T10801104  RH  083%=      5-min Rain = 0
KSP2 141020Z 08005KT M08/M10 A3031 RMK A01 T10791104  RH  083%=      5-min Rain = 0
KSP2 141021Z 08004KT M08/M10 A3031 RMK A01 T10801104  RH  083%=      5-min Rain = 0
KSP2 141022Z 08005KT M08/M11 A3031 RMK A01 T10801105  RH  083%=      5-min Rain = 0
KSP2 141023Z 08004KT M08/M10 A3031 RMK A01 T10801104  RH  083%=      5-min Rain = 0
KSP2 141024Z 08004KT M08/M10 A3031 RMK A01 T10801104  RH  083%=      5-min Rain = 0
KSP2 141025Z 08004KT M08/M10 A3031 RMK A01 T10801104  RH  083%=      5-min Rain = 0
KSP2 141026Z 08003KT M08/M11 A3031 RMK A01 T10801105  RH  083%=      5-min Rain = 0
KSP2 141027Z 08003KT M08/M11 A3031 RMK A01 T10811105  RH  083%=      5-min Rain = 0
KSP2 141028Z 08003KT M08/M11 A3031 RMK A01 T10821105  RH  083%=      5-min Rain = 0
KSP2 141029Z 07003KT M08/M11 A3031 RMK A01 T10821105  RH  083%=      5-min Rain = 0
KSP2 141030Z 07003KT M08/M11 A3031 RMK A01 T10831106  RH  084%=      5-min Rain = 0
KSP2 141031Z 06003KT M08/M11 A3031 RMK A01 T10841106  RH  084%=      5-min Rain = 0
KSP2 141032Z 06003KT M09/M11 A3031 RMK A01 T10851106  RH  085%=      5-min Rain = 0
KSP2 141033Z 06003KT M09/M11 A3031 RMK A01 T10851106  RH  085%=      5-min Rain = 0
KSP2 141034Z 07004KT M09/M11 A3031 RMK A01 T10851106  RH  085%=      5-min Rain = 0
KSP2 141035Z 07004KT M09/M11 A3031 RMK A01 T10861106  RH  086%=      5-min Rain = 0
KSP2 141036Z 07004KT M09/M11 A3031 RMK A01 T10861105  RH  086%=      5-min Rain = 0
KSP2 141037Z 07004KT M09/M11 A3031 RMK A01 T10861105  RH  086%=      5-min Rain = 0
KSP2 141038Z 08004KT M09/M11 A3031 RMK A01 T10861106  RH  086%=      5-min Rain = 0
KSP2 141039Z 08004KT M09/M11 A3031 RMK A01 T10871106  RH  086%=      5-min Rain = 0
KSP2 141040Z 07004KT M09/M11 A3031 RMK A01 T10871106  RH  086%=      5-min Rain = 0
KSP2 141041Z 07004KT M09/M11 A3031 RMK A01 T10871107  RH  086%=      5-min Rain = 0
KSP2 141042Z 08004KT M09/M11 A3031 RMK A01 T10881108  RH  085%=      5-min Rain = 0
KSP2 141043Z 08004KT M09/M11 A3031 RMK A01 T10881108  RH  086%=      5-min Rain = 0
KSP2 141044Z 08004KT M09/M11 A3031 RMK A01 T10881108  RH  086%=      5-min Rain = 0
KSP2 141045Z 08004KT M09/M11 A3031 RMK A01 T10891108  RH  086%=      5-min Rain = 0
KSP2 141046Z 08004KT M09/M11 A3031 RMK A01 T10881108  RH  086%=      5-min Rain = 0
KSP2 141047Z 08004KT M09/M11 A3031 RMK A01 T10891108  RH  086%=      5-min Rain = 0
KSP2 141048Z 08004KT M09/M11 A3031 RMK A01 T10891108  RH  086%=      5-min Rain = 0
KSP2 141049Z 09003KT M09/M11 A3031 RMK A01 T10901109  RH  086%=      5-min Rain = 0
KSP2 141050Z 09003KT M09/M11 A3031 RMK A01 T10901108  RH  087%=      5-min Rain = 0
KSP2 141051Z 09004KT M09/M11 A3031 RMK A01 T10901108  RH  087%=      5-min Rain = 0
KSP2 141052Z 09004KT M09/M11 A3031 RMK A01 T10901107  RH  087%=      5-min Rain = 0
KSP2 141053Z 09004KT M09/M11 A3031 RMK A01 T10891107  RH  087%=      5-min Rain = 0
KSP2 141054Z 10004KT M09/M11 A3031 RMK A01 T10891107  RH  086%=      5-min Rain = 0
KSP2 141055Z 10004KT M09/M11 A3031 RMK A01 T10891108  RH  086%=      5-min Rain = 0
KSP2 141056Z 10004KT M09/M11 A3031 RMK A01 T10891109  RH  086%=      5-min Rain = 0
KSP2 141057Z 11003KT M09/M11 A3031 RMK A01 T10901109  RH  086%=      5-min Rain = 0
KSP2 141058Z 10004KT M09/M11 A3031 RMK A01 T10901110  RH  086%=      5-min Rain = 0
KSP2 141059Z 10004KT M09/M11 A3031 RMK A01 T10901109  RH  086%=      5-min Rain = 0
KSP2 141100Z 10004KT M09/M11 A3031 RMK A01 T10911109  RH  087%=      5-min Rain = 0
KSP2 141101Z 10005KT M09/M11 A3031 RMK A01 T10921110  RH  087%=      5-min Rain = 0
KSP2 141102Z 10005KT M09/M11 A3031 RMK A01 T10921109  RH  087%=      5-min Rain = 0
KSP2 141103Z 09005KT M09/M11 A3031 RMK A01 T10921110  RH  087%=      5-min Rain = 0
KSP2 141104Z 09005KT M09/M11 A3031 RMK A01 T10921110  RH  087%=      5-min Rain = 0
KSP2 141105Z 09004KT M09/M11 A3031 RMK A01 T10921110  RH  087%=      5-min Rain = 0
KSP2 141106Z 09004KT M09/M11 A3031 RMK A01 T10931110  RH  087%=      5-min Rain = 0
KSP2 141107Z 09004KT M09/M11 A3031 RMK A01 T10931110  RH  087%=      5-min Rain = 0
KSP2 141108Z 09004KT M09/M11 A3031 RMK A01 T10931110  RH  087%=      5-min Rain = 0
KSP2 141109Z 09004KT M09/M11 A3031 RMK A01 T10931110  RH  088%=      5-min Rain = 0
KSP2 141110Z 09004KT M09/M11 A3031 RMK A01 T10931110  RH  088%=      5-min Rain = 0
KSP2 141111Z 09004KT M09/M11 A3031 RMK A01 T10931110  RH  088%=      5-min Rain = 0
KSP2 141112Z 09004KT M09/M11 A3031 RMK A01 T10931110  RH  088%=      5-min Rain = 0
KSP2 141113Z 09004KT M09/M11 A3031 RMK A01 T10941110  RH  088%=      5-min Rain = 0
KSP2 141114Z 09004KT M09/M11 A3031 RMK A01 T10941109  RH  088%=      5-min Rain = 0
KSP2 141115Z 09004KT M09/M11 A3031 RMK A01 T10941110  RH  088%=      5-min Rain = 0
KSP2 141116Z 09004KT M09/M11 A3031 RMK A01 T10941110  RH  088%=      5-min Rain = 0
KSP2 141117Z 09004KT M09/M11 A3031 RMK A01 T10941110  RH  089%=      5-min Rain = 0
KSP2 141118Z 09004KT M10/M11 A3031 RMK A01 T10951110  RH  089%=      5-min Rain = 0
KSP2 141119Z 09004KT M10/M11 A3031 RMK A01 T10951110  RH  089%=      5-min Rain = 0
KSP2 141120Z 09004KT M10/M11 A3031 RMK A01 T10951110  RH  089%=      5-min Rain = 0
KSP2 141121Z 09004KT M10/M11 A3031 RMK A01 T10951110  RH  089%=      5-min Rain = 0
KSP2 141122Z 09004KT M10/M11 A3031 RMK A01 T10951110  RH  089%=      5-min Rain = 0
KSP2 141123Z 10005KT M10/M11 A3031 RMK A01 T10961110  RH  089%=      5-min Rain = 0
KSP2 141124Z 10004KT M10/M11 A3031 RMK A01 T10951110  RH  089%=      5-min Rain = 0
KSP2 141125Z 10004KT M10/M11 A3031 RMK A01 T10951109  RH  090%=      5-min Rain = 0
KSP2 141126Z 10004KT M09/M11 A3031 RMK A01 T10941107  RH  090%=      5-min Rain = 0
KSP2 141127Z 10004KT M09/M11 A3031 RMK A01 T10931106  RH  090%=      5-min Rain = 0
KSP2 141128Z 10004KT M09/M11 A3031 RMK A01 T10921105  RH  090%=      5-min Rain = 0
KSP2 141129Z 10004KT M09/M11 A3031 RMK A01 T10911105  RH  090%=      5-min Rain = 0
KSP2 141130Z 10004KT M09/M10 A3031 RMK A01 T10901104  RH  090%=      5-min Rain = 0
KSP2 141131Z 10004KT M09/M10 A3031 RMK A01 T10901104  RH  090%=      5-min Rain = 0
KSP2 141132Z 10004KT M09/M10 A3031 RMK A01 T10891104  RH  089%=      5-min Rain = 0
KSP2 141133Z 10004KT M09/M10 A3031 RMK A01 T10891103  RH  089%=      5-min Rain = 0
KSP2 141134Z 10004KT M09/M10 A3031 RMK A01 T10891103  RH  089%=      5-min Rain = 0
KSP2 141135Z 10004KT M09/M10 A3031 RMK A01 T10881103  RH  089%=      5-min Rain = 0
KSP2 141136Z 10004KT M09/M10 A3031 RMK A01 T10881103  RH  089%=      5-min Rain = 0
KSP2 141137Z 10004KT M09/M10 A3031 RMK A01 T10871102  RH  089%=      5-min Rain = 0
KSP2 141138Z 10003KT M09/M10 A3031 RMK A01 T10861101  RH  089%=      5-min Rain = 0
KSP2 141139Z 10003KT M09/M10 A3031 RMK A01 T10861100  RH  089%=      5-min Rain = 0
KSP2 141140Z 10003KT M09/M10 A3031 RMK A01 T10851100  RH  089%=      5-min Rain = 0
KSP2 141141Z 10003KT M08/M10 A3031 RMK A01 T10841098  RH  089%=      5-min Rain = 0
KSP2 141142Z 10003KT M08/M10 A3031 RMK A01 T10831098  RH  089%=      5-min Rain = 0
KSP2 141143Z 09004KT M08/M10 A3031 RMK A01 T10821097  RH  089%=      5-min Rain = 0
KSP2 141144Z 09004KT M08/M10 A3031 RMK A01 T10811097  RH  089%=      5-min Rain = 0
KSP2 141145Z 09004KT M08/M10 A3031 RMK A01 T10811096  RH  089%=      5-min Rain = 0
KSP2 141146Z 09004KT M08/M10 A3031 RMK A01 T10801096  RH  088%=      5-min Rain = 0
KSP2 141147Z 09004KT M08/M10 A3031 RMK A01 T10791097  RH  087%=      5-min Rain = 0
KSP2 141148Z 08005KT M08/M10 A3031 RMK A01 T10791098  RH  087%=      5-min Rain = 0
KSP2 141149Z 08004KT M08/M10 A303 RMK A01 T10781098  RH  086%=      5-min Rain = 0
KSP2 141150Z 08004KT M08/M10 A303 RMK A01 T10781098  RH  085%=      5-min Rain = 0
KSP2 141151Z 09004KT M08/M10 A303 RMK A01 T10781098  RH  085%=      5-min Rain = 0
KSP2 141152Z 09004KT M08/M10 A303 RMK A01 T10781098  RH  085%=      5-min Rain = 0
KSP2 141153Z 09004KT M08/M10 A3031 RMK A01 T10771098  RH  085%=      5-min Rain = 0
KSP2 141154Z 09005KT M08/M10 A3031 RMK A01 T10771098  RH  085%=      5-min Rain = 0
KSP2 141155Z 09004KT M08/M10 A303 RMK A01 T10771099  RH  084%=      5-min Rain = 0
KSP2 141156Z 09005KT M08/M10 A303 RMK A01 T10771099  RH  084%=      5-min Rain = 0
KSP2 141157Z 09005KT M08/M10 A303 RMK A01 T10771099  RH  084%=      5-min Rain = 0
KSP2 141158Z 08004KT M08/M10 A303 RMK A01 T10771100  RH  084%=      5-min Rain = 0
KSP2 141159Z 08003KT M08/M10 A303 RMK A01 T10771099  RH  084%=      5-min Rain = 0
KSP2 141200Z 09005KT M08/M10 A303 RMK A01 T10771099  RH  084%=      5-min Rain = 0
KSP2 141201Z 09005KT M08/M10 A303 RMK A01 T10771100  RH  084%=      5-min Rain = 0
KSP2 141202Z 09005KT M08/M10 A3031 RMK A01 T10771100  RH  083%=      5-min Rain = 0
KSP2 141203Z 10004KT M08/M10 A3031 RMK A01 T10771100  RH  084%=      5-min Rain = 0
KSP2 141204Z 09004KT M08/M10 A3031 RMK A01 T10771099  RH  084%=      5-min Rain = 0
KSP2 141205Z 09004KT M08/M10 A3031 RMK A01 T10761098  RH  084%=      5-min Rain = 0
KSP2 141206Z 08004KT M08/M10 A3031 RMK A01 T10761097  RH  085%=      5-min Rain = 0
KSP2 141207Z 09003KT M08/M10 A3031 RMK A01 T10761099  RH  084%=      5-min Rain = 0
KSP2 141208Z 09005KT M08/M10 A3031 RMK A01 T10771100  RH  083%=      5-min Rain = 0
KSP2 141209Z 09005KT M08/M10 A3031 RMK A01 T10771101  RH  083%=      5-min Rain = 0
KSP2 141210Z 09004KT M08/M10 A3031 RMK A01 T10771102  RH  083%=      5-min Rain = 0
KSP2 141211Z 09005KT M08/M10 A3031 RMK A01 T10781103  RH  082%=      5-min Rain = 0
KSP2 141212Z 10006KT M08/M10 A3031 RMK A01 T10781103  RH  083%=      5-min Rain = 0
KSP2 141213Z 10005KT M08/M10 A3031 RMK A01 T10781103  RH  083%=      5-min Rain = 0
KSP2 141214Z 10004KT M08/M10 A3031 RMK A01 T10791103  RH  083%=      5-min Rain = 0
KSP2 141215Z 10004KT M08/M10 A3031 RMK A01 T10791102  RH  083%=      5-min Rain = 0
KSP2 141216Z 09003KT M08/M10 A3031 RMK A01 T10791101  RH  084%=      5-min Rain = 0
KSP2 141217Z 10003KT M08/M10 A3031 RMK A01 T10791101  RH  084%=      5-min Rain = 0
KSP2 141218Z 10005KT M08/M10 A3031 RMK A01 T10801101  RH  084%=      5-min Rain = 0
KSP2 141219Z 09005KT M08/M10 A3031 RMK A01 T10791101  RH  084%=      5-min Rain = 0
KSP2 141220Z 09005KT M08/M10 A3031 RMK A01 T10791102  RH  084%=      5-min Rain = 0
KSP2 141221Z 09005KT M08/M10 A3031 RMK A01 T10801102  RH  084%=      5-min Rain = 0
KSP2 141222Z 09005KT M08/M10 A3031 RMK A01 T10801102  RH  084%=      5-min Rain = 0
KSP2 141223Z 10004KT M08/M10 A3031 RMK A01 T10791102  RH  084%=      5-min Rain = 0
KSP2 141224Z 10005KT M08/M10 A3031 RMK A01 T10801103  RH  084%=      5-min Rain = 0
KSP2 141225Z 09005KT M08/M10 A3031 RMK A01 T10811104  RH  083%=      5-min Rain = 0
KSP2 141226Z 10005KT M08/M10 A3031 RMK A01 T10811104  RH  084%=      5-min Rain = 0
KSP2 141227Z 09005KT M08/M11 A303 RMK A01 T10821105  RH  084%=      5-min Rain = 0
KSP2 141228Z 09005KT M08/M11 A303 RMK A01 T10821105  RH  084%=      5-min Rain = 0
KSP2 141229Z 09004KT M08/M11 A3031 RMK A01 T10831105  RH  084%=      5-min Rain = 0
KSP2 141230Z 09004KT M08/M11 A3031 RMK A01 T10831106  RH  084%=      5-min Rain = 0
KSP2 141231Z 09005KT M08/M11 A3031 RMK A01 T10841106  RH  084%=      5-min Rain = 0
KSP2 141232Z 09004KT M08/M11 A3031 RMK A01 T10841106  RH  084%=      5-min Rain = 0
KSP2 141233Z 09004KT M09/M11 A3031 RMK A01 T10851107  RH  084%=      5-min Rain = 0
KSP2 141234Z 08004KT M09/M11 A3031 RMK A01 T10861108  RH  084%=      5-min Rain = 0
KSP2 141235Z 08004KT M09/M11 A3031 RMK A01 T10861108  RH  085%=      5-min Rain = 0
KSP2 141236Z 09004KT M09/M11 A3031 RMK A01 T10871108  RH  085%=      5-min Rain = 0
KSP2 141237Z 08004KT M09/M11 A3031 RMK A01 T10881109  RH  085%=      5-min Rain = 0
KSP2 141238Z 08004KT M09/M11 A3031 RMK A01 T10881109  RH  085%=      5-min Rain = 0
KSP2 141239Z 09003KT M09/M11 A3031 RMK A01 T10891109  RH  085%=      5-min Rain = 0
KSP2 141240Z 08004KT M09/M11 A3031 RMK A01 T10901110  RH  086%=      5-min Rain = 0
KSP2 141241Z 09003KT M09/M11 A3031 RMK A01 T10901110  RH  086%=      5-min Rain = 0
KSP2 141242Z 09004KT M09/M11 A3031 RMK A01 T10911110  RH  086%=      5-min Rain = 0
KSP2 141243Z 08004KT M09/M11 A3031 RMK A01 T10911110  RH  086%=      5-min Rain = 0
KSP2 141244Z 08004KT M09/M11 A3031 RMK A01 T10911109  RH  086%=      5-min Rain = 0
KSP2 141245Z 08004KT M09/M11 A3031 RMK A01 T10911110  RH  086%=      5-min Rain = 0
KSP2 141246Z 08004KT M09/M11 A3031 RMK A01 T10911110  RH  086%=      5-min Rain = 0
KSP2 141247Z 08004KT M09/M11 A3031 RMK A01 T10911109  RH  086%=      5-min Rain = 0
KSP2 141248Z 08003KT M09/M11 A3031 RMK A01 T10911109  RH  087%=      5-min Rain = 0
KSP2 141249Z 08003KT M09/M11 A3031 RMK A01 T10911109  RH  087%=      5-min Rain = 0
KSP2 141250Z 08003KT M09/M11 A3031 RMK A01 T10911109  RH  087%=      5-min Rain = 0
KSP2 141251Z 09003KT M09/M11 A3031 RMK A01 T10911109  RH  087%=      5-min Rain = 0
KSP2 141252Z 08003KT M09/M11 A3031 RMK A01 T10911109  RH  087%=      5-min Rain = 0
KSP2 141253Z 08003KT M09/M11 A3031 RMK A01 T10911108  RH  087%=      5-min Rain = 0
KSP2 141254Z 08003KT M09/M11 A3031 RMK A01 T10911108  RH  087%=      5-min Rain = 0
KSP2 141255Z 09003KT M09/M11 A3031 RMK A01 T10911107  RH  088%=      5-min Rain = 0
KSP2 141256Z 09003KT M09/M11 A3031 RMK A01 T10901106  RH  088%=      5-min Rain = 0
KSP2 141257Z 09003KT M09/M10 A3031 RMK A01 T10891104  RH  089%=      5-min Rain = 0
KSP2 141258Z 10003KT M09/M10 A3031 RMK A01 T10871102  RH  089%=      5-min Rain = 0
KSP2 141259Z 10003KT M09/M10 A3031 RMK A01 T10861102  RH  089%=      5-min Rain = 0
KSP2 141300Z 10003KT M09/M10 A3031 RMK A01 T10851101  RH  088%=      5-min Rain = 0
KSP2 141301Z 10002KT M08/M10 A3031 RMK A01 T10841102  RH  087%=      5-min Rain = 0
KSP2 141302Z 10003KT M08/M10 A3031 RMK A01 T10841102  RH  087%=      5-min Rain = 0
KSP2 141303Z 09004KT M08/M10 A3031 RMK A01 T10831102  RH  086%=      5-min Rain = 0
KSP2 141304Z 09003KT M08/M10 A3031 RMK A01 T10831103  RH  085%=      5-min Rain = 0
KSP2 141305Z 09003KT M08/M10 A3031 RMK A01 T10821104  RH  085%=      5-min Rain = 0
KSP2 141306Z 10003KT M08/M10 A3031 RMK A01 T10821104  RH  085%=      5-min Rain = 0
KSP2 141307Z 09004KT M08/M10 A3031 RMK A01 T10821104  RH  085%=      5-min Rain = 0
KSP2 141308Z 09004KT M08/M10 A3031 RMK A01 T10821103  RH  085%=      5-min Rain = 0
KSP2 141309Z 09003KT M08/M10 A3031 RMK A01 T10821103  RH  084%=      5-min Rain = 0
KSP2 141310Z 09003KT M08/M10 A3031 RMK A01 T10811103  RH  085%=      5-min Rain = 0
KSP2 141311Z 09003KT M08/M10 A3031 RMK A01 T10811102  RH  085%=      5-min Rain = 0
KSP2 141312Z 09003KT M08/M10 A3031 RMK A01 T10801101  RH  085%=      5-min Rain = 0
KSP2 141313Z 08002KT M08/M10 A3031 RMK A01 T10811102  RH  084%=      5-min Rain = 0
KSP2 141314Z 09003KT M08/M10 A3031 RMK A01 T10811102  RH  084%=      5-min Rain = 0
KSP2 141315Z 08003KT M08/M10 A3031 RMK A01 T10801102  RH  084%=      5-min Rain = 0
KSP2 141316Z 09003KT M08/M10 A3031 RMK A01 T10801103  RH  084%=      5-min Rain = 0
KSP2 141317Z 09003KT M08/M10 A3031 RMK A01 T10811103  RH  084%=      5-min Rain = 0
KSP2 141318Z 10004KT M08/M10 A3031 RMK A01 T10801104  RH  083%=      5-min Rain = 0
KSP2 141319Z 10003KT M08/M11 A3031 RMK A01 T10801105  RH  083%=      5-min Rain = 0
KSP2 141320Z 09002KT M08/M10 A3031 RMK A01 T10811104  RH  083%=      5-min Rain = 0
KSP2 141321Z 10003KT M08/M10 A3031 RMK A01 T10801103  RH  084%=      5-min Rain = 0
KSP2 141322Z 10003KT M08/M10 A3031 RMK A01 T10801103  RH  084%=      5-min Rain = 0
KSP2 141323Z 09004KT M08/M10 A3031 RMK A01 T10801104  RH  084%=      5-min Rain = 0
KSP2 141324Z 09004KT M08/M10 A3031 RMK A01 T10801104  RH  083%=      5-min Rain = 0
KSP2 141325Z 09004KT M08/M10 A3031 RMK A01 T10801103  RH  083%=      5-min Rain = 0
KSP2 141326Z 10004KT M08/M10 A3031 RMK A01 T10801103  RH  083%=      5-min Rain = 0
KSP2 141327Z 10003KT M08/M10 A3031 RMK A01 T10801104  RH  083%=      5-min Rain = 0
KSP2 141328Z 10003KT M08/M10 A3031 RMK A01 T10791103  RH  083%=      5-min Rain = 0
KSP2 141329Z 10004KT M08/M10 A3031 RMK A01 T10791102  RH  083%=      5-min Rain = 0
KSP2 141330Z 11004KT M08/M10 A3032 RMK A01 T10791103  RH  083%=      5-min Rain = 0
KSP2 141331Z 11002KT M08/M10 A3031 RMK A01 T10791103  RH  083%=      5-min Rain = 0
KSP2 141332Z 10003KT M08/M10 A3031 RMK A01 T10781101  RH  084%=      5-min Rain = 0
KSP2 141333Z 10003KT M08/M10 A3031 RMK A01 T10791102  RH  083%=      5-min Rain = 0
KSP2 141334Z 11003KT M08/M10 A3031 RMK A01 T10791103  RH  083%=      5-min Rain = 0
KSP2 141335Z 11004KT M08/M10 A3031 RMK A01 T10791102  RH  083%=      5-min Rain = 0
KSP2 141336Z 12003KT M08/M10 A3032 RMK A01 T10791103  RH  082%=      5-min Rain = 0
KSP2 141337Z 10003KT M08/M10 A3032 RMK A01 T10781103  RH  083%=      5-min Rain = 0
KSP2 141338Z 10004KT M08/M10 A3032 RMK A01 T10781102  RH  083%=      5-min Rain = 0
KSP2 141339Z 10004KT M08/M10 A3032 RMK A01 T10781102  RH  083%=      5-min Rain = 0
KSP2 141340Z 11003KT M08/M10 A3032 RMK A01 T10781103  RH  082%=      5-min Rain = 0
KSP2 141341Z 11004KT M08/M10 A3032 RMK A01 T10781103  RH  082%=      5-min Rain = 0
KSP2 141342Z 11004KT M08/M10 A3032 RMK A01 T10781103  RH  082%=      5-min Rain = 0
KSP2 141343Z 11003KT M08/M10 A3032 RMK A01 T10771102  RH  082%=      5-min Rain = 0
KSP2 141344Z 11003KT M08/M10 A3032 RMK A01 T10771102  RH  082%=      5-min Rain = 0
KSP2 141345Z 10003KT M08/M10 A3032 RMK A01 T10771101  RH  083%=      5-min Rain = 0
KSP2 141346Z 10004KT M08/M10 A3032 RMK A01 T10761099  RH  084%=      5-min Rain = 0
KSP2 141347Z 10003KT M08/M10 A3032 RMK A01 T10761100  RH  083%=      5-min Rain = 0
KSP2 141348Z 10003KT M08/M10 A3032 RMK A01 T10761101  RH  083%=      5-min Rain = 0
KSP2 141349Z 10003KT M08/M10 A3032 RMK A01 T10761101  RH  082%=      5-min Rain = 0
KSP2 141350Z 10003KT M08/M10 A3032 RMK A01 T10761102  RH  082%=      5-min Rain = 0
KSP2 141351Z 11003KT M08/M10 A3032 RMK A01 T10761101  RH  083%=      5-min Rain = 0
KSP2 141352Z 10003KT M08/M10 A3032 RMK A01 T10761100  RH  083%=      5-min Rain = 0
KSP2 141353Z 11004KT M08/M10 A3032 RMK A01 T10751100  RH  083%=      5-min Rain = 0
KSP2 141354Z 11004KT M08/M10 A3032 RMK A01 T10751101  RH  082%=      5-min Rain = 0
KSP2 141355Z 10004KT M08/M10 A3032 RMK A01 T10761101  RH  082%=      5-min Rain = 0
KSP2 141356Z 12004KT M08/M10 A3032 RMK A01 T10751100  RH  082%=      5-min Rain = 0
KSP2 141357Z 12003KT M08/M10 A3032 RMK A01 T10751100  RH  082%=      5-min Rain = 0
KSP2 141358Z 11004KT M07/M10 A3032 RMK A01 T10741099  RH  083%=      5-min Rain = 0
KSP2 141359Z 12003KT M07/M10 A3032 RMK A01 T10741099  RH  083%=      5-min Rain = 0
KSP2 141400Z 11004KT M07/M10 A3032 RMK A01 T10741098  RH  083%=      5-min Rain = 0
KSP2 141401Z 11004KT M07/M10 A3032 RMK A01 T10741098  RH  082%=      5-min Rain = 0
KSP2 141402Z 12004KT M07/M10 A3032 RMK A01 T10741099  RH  082%=      5-min Rain = 0
KSP2 141403Z 13003KT M07/M10 A3032 RMK A01 T10731099  RH  082%=      5-min Rain = 0
KSP2 141404Z 12003KT M07/M10 A3032 RMK A01 T10731098  RH  083%=      5-min Rain = 0
KSP2 141405Z 12004KT M07/M10 A3032 RMK A01 T10731097  RH  083%=      5-min Rain = 0
KSP2 141406Z 11004KT M07/M10 A3032 RMK A01 T10731097  RH  083%=      5-min Rain = 0
KSP2 141407Z 10003KT M07/M10 A3032 RMK A01 T10721097  RH  082%=      5-min Rain = 0
KSP2 141408Z 11004KT M07/M10 A3032 RMK A01 T10731098  RH  082%=      5-min Rain = 0
KSP2 141409Z 11003KT M07/M10 A3032 RMK A01 T10721097  RH  083%=      5-min Rain = 0
KSP2 141410Z 12004KT M07/M10 A3032 RMK A01 T10721097  RH  083%=      5-min Rain = 0
KSP2 141411Z 13004KT M07/M10 A3032 RMK A01 T10721097  RH  082%=      5-min Rain = 0
KSP2 141412Z 12003KT M07/M10 A3032 RMK A01 T10721097  RH  082%=      5-min Rain = 0
KSP2 141413Z 12003KT M07/M10 A3032 RMK A01 T10721098  RH  082%=      5-min Rain = 0
KSP2 141414Z 11003KT M07/M10 A3032 RMK A01 T10721097  RH  082%=      5-min Rain = 0
KSP2 141415Z 11003KT M07/M10 A3032 RMK A01 T10721097  RH  082%=      5-min Rain = 0
KSP2 141416Z 11003KT M07/M10 A3033 RMK A01 T10711095  RH  083%=      5-min Rain = 0
KSP2 141417Z 11003KT M07/M10 A3033 RMK A01 T10711095  RH  083%=      5-min Rain = 0
KSP2 141418Z 12004KT M07/M10 A3033 RMK A01 T10711095  RH  083%=      5-min Rain = 0
KSP2 141419Z 11004KT M07/M09 A3033 RMK A01 T10701094  RH  083%=      5-min Rain = 0
KSP2 141420Z 12004KT M07/M10 A3033 RMK A01 T10701095  RH  083%=      5-min Rain = 0
KSP2 141421Z 13004KT M07/M09 A3033 RMK A01 T10701094  RH  083%=      5-min Rain = 0
KSP2 141422Z 12003KT M07/M10 A3033 RMK A01 T10701095  RH  083%=      5-min Rain = 0
KSP2 141423Z 12003KT M07/M10 A3033 RMK A01 T10701095  RH  082%=      5-min Rain = 0
KSP2 141424Z 12003KT M07/M10 A3033 RMK A01 T10701095  RH  083%=      5-min Rain = 0
KSP2 141425Z 13004KT M07/M09 A3033 RMK A01 T10691093  RH  083%=      5-min Rain = 0
KSP2 141426Z 13003KT M07/M09 A3033 RMK A01 T10691092  RH  083%=      5-min Rain = 0
KSP2 141427Z 14002KT M07/M09 A3033 RMK A01 T10681092  RH  083%=      5-min Rain = 0
KSP2 141428Z 14003KT M07/M09 A3033 RMK A01 T10681091  RH  083%=      5-min Rain = 0
KSP2 141429Z 14004KT M07/M09 A3033 RMK A01 T10671091  RH  083%=      5-min Rain = 0
KSP2 141430Z 14004KT M07/M09 A3033 RMK A01 T10661090  RH  083%=      5-min Rain = 0
KSP2 141431Z 14004KT M07/M09 A3033 RMK A01 T10651088  RH  084%=      5-min Rain = 0
KSP2 141432Z 14005KT M07/M09 A3033 RMK A01 T10651089  RH  083%=      5-min Rain = 0
KSP2 141433Z 15006KT M06/M09 A3033 RMK A01 T10641089  RH  083%=      5-min Rain = 0
KSP2 141434Z 16005KT M06/M09 A3033 RMK A01 T10631089  RH  082%=      5-min Rain = 0
KSP2 141435Z 15005KT M06/M09 A3033 RMK A01 T10631091  RH  081%=      5-min Rain = 0
KSP2 141436Z 15006KT M06/M09 A3033 RMK A01 T10631090  RH  081%=      5-min Rain = 0
KSP2 141437Z 15006KT M06/M09 A3033 RMK A01 T10631090  RH  081%=      5-min Rain = 0
KSP2 141438Z 15004KT M06/M09 A3033 RMK A01 T10631090  RH  081%=      5-min Rain = 0
KSP2 141439Z 13005KT M06/M09 A3033 RMK A01 T10631089  RH  082%=      5-min Rain = 0
KSP2 141440Z 14006KT M06/M09 A3033 RMK A01 T10621087  RH  082%=      5-min Rain = 0
KSP2 141441Z 14005KT M06/M09 A3033 RMK A01 T10611088  RH  082%=      5-min Rain = 0
KSP2 141442Z 15005KT M06/M09 A3033 RMK A01 T10611088  RH  081%=      5-min Rain = 0
KSP2 141443Z 15007KT M06/M09 A3033 RMK A01 T10611088  RH  081%=      5-min Rain = 0
KSP2 141444Z 16006KT M06/M09 A3033 RMK A01 T10601089  RH  080%=      5-min Rain = 0
KSP2 141445Z 17007KT M06/M09 A3033 RMK A01 T10601089  RH  080%=      5-min Rain = 0
KSP2 141446Z 16007KT M06/M09 A3033 RMK A01 T10601088  RH  080%=      5-min Rain = 0
KSP2 141447Z 17006KT M06/M09 A3033 RMK A01 T10591089  RH  080%=      5-min Rain = 0
KSP2 141448Z 17006KT M06/M09 A3033 RMK A01 T10591088  RH  080%=      5-min Rain = 0
KSP2 141449Z 17005KT M06/M09 A3033 RMK A01 T10591087  RH  080%=      5-min Rain = 0
KSP2 141450Z 15006KT M06/M09 A3033 RMK A01 T10581086  RH  081%=      5-min Rain = 0
KSP2 141451Z 15007KT M06/M09 A3033 RMK A01 T10571085  RH  081%=      5-min Rain = 0
KSP2 141452Z 15007KT M06/M09 A3033 RMK A01 T10571086  RH  080%=      5-min Rain = 0
KSP2 141453Z 15007KT M06/M09 A3033 RMK A01 T10561085  RH  080%=      5-min Rain = 0
KSP2 141454Z 16006KT M06/M09 A3033 RMK A01 T10561086  RH  080%=      5-min Rain = 0
KSP2 141455Z 17006KT M06/M09 A3033 RMK A01 T10561086  RH  079%=      5-min Rain = 0
KSP2 141456Z 16006KT M06/M09 A3033 RMK A01 T10571087  RH  079%=      5-min Rain = 0
KSP2 141457Z 16006KT M06/M09 A3033 RMK A01 T10571086  RH  080%=      5-min Rain = 0
KSP2 141458Z 17006KT M06/M09 A3033 RMK A01 T10571086  RH  080%=      5-min Rain = 0
KSP2 141459Z 17006KT M06/M09 A3033 RMK A01 T10571086  RH  080%=      5-min Rain = 0
KSP2 141500Z 16005KT M06/M09 A3033 RMK A01 T10571086  RH  080%=      5-min Rain = 0
KSP2 141501Z 17006KT M06/M08 A3033 RMK A01 T10561084  RH  081%=      5-min Rain = 0
KSP2 141502Z 17007KT M06/M09 A3033 RMK A01 T10561085  RH  080%=      5-min Rain = 0
KSP2 141503Z 17007KT M06/M09 A3033 RMK A01 T10561085  RH  080%=      5-min Rain = 0
KSP2 141504Z 16009KT M06/M08 A3033 RMK A01 T10551084  RH  080%=      5-min Rain = 0
KSP2 141505Z 16008KT M06/M09 A3033 RMK A01 T10551085  RH  080%=      5-min Rain = 0
KSP2 141506Z 16007KT M06/M09 A3033 RMK A01 T10561085  RH  080%=      5-min Rain = 0
KSP2 141507Z 18007KT M06/M08 A3033 RMK A01 T10551083  RH  081%=      5-min Rain = 0
KSP2 141508Z 18007KT M05/M08 A3033 RMK A01 T10541083  RH  081%=      5-min Rain = 0
KSP2 141509Z 18007KT M05/M08 A3033 RMK A01 T10541083  RH  080%=      5-min Rain = 0
KSP2 141510Z 16008KT M05/M08 A3033 RMK A01 T10541082  RH  081%=      5-min Rain = 0
KSP2 141511Z 17009KT M05/M08 A3033 RMK A01 T10541082  RH  080%=      5-min Rain = 0
KSP2 141512Z 17007KT M05/M08 A3033 RMK A01 T10541083  RH  080%=      5-min Rain = 0
KSP2 141513Z 16008KT M05/M08 A3033 RMK A01 T10531081  RH  081%=      5-min Rain = 0
KSP2 141514Z 16007KT M05/M08 A3033 RMK A01 T10531081  RH  081%=      5-min Rain = 0
KSP2 141515Z 17007KT M05/M08 A3033 RMK A01 T10531082  RH  080%=      5-min Rain = 0
KSP2 141516Z 17007KT M05/M08 A3033 RMK A01 T10531081  RH  081%=      5-min Rain = 0
KSP2 141517Z 17006KT M05/M08 A3033 RMK A01 T10531081  RH  081%=      5-min Rain = 0
KSP2 141518Z 18007KT M05/M08 A3033 RMK A01 T10521078  RH  081%=      5-min Rain = 0
KSP2 141519Z 18008KT M05/M08 A3033 RMK A01 T10501078  RH  081%=      5-min Rain = 0
KSP2 141520Z 18008KT M05/M08 A3033 RMK A01 T10501078  RH  081%=      5-min Rain = 0
KSP2 141521Z 19008KT M05/M08 A3033 RMK A01 T10501079  RH  080%=      5-min Rain = 0
KSP2 141522Z 18007KT M05/M08 A3033 RMK A01 T10501079  RH  080%=      5-min Rain = 0
KSP2 141523Z 18007KT M05/M08 A3033 RMK A01 T10501079  RH  080%=      5-min Rain = 0
KSP2 141524Z 18007KT M05/M08 A3033 RMK A01 T10501079  RH  080%=      5-min Rain = 0
KSP2 141525Z 18005KT M05/M08 A3033 RMK A01 T10501078  RH  080%=      5-min Rain = 0
KSP2 141526Z 18006KT M05/M08 A3033 RMK A01 T10491077  RH  081%=      5-min Rain = 0
KSP2 141527Z 17005KT M05/M08 A3033 RMK A01 T10491078  RH  080%=      5-min Rain = 0
KSP2 141528Z 16008KT M05/M08 A3033 RMK A01 T10491077  RH  081%=      5-min Rain = 0
KSP2 141529Z 17007KT M05/M08 A3033 RMK A01 T10481077  RH  081%=      5-min Rain = 0
KSP2 141530Z 18007KT M05/M08 A3033 RMK A01 T10481077  RH  080%=      5-min Rain = 0
KSP2 141531Z 16009KT M05/M08 A3033 RMK A01 T10491078  RH  080%=      5-min Rain = 0
KSP2 141532Z 16007KT M05/M08 A3033 RMK A01 T10501078  RH  081%=      5-min Rain = 0
KSP2 141533Z 16007KT M05/M08 A3033 RMK A01 T10491076  RH  081%=      5-min Rain = 0
KSP2 141534Z 16009KT M05/M08 A3033 RMK A01 T10471075  RH  081%=      5-min Rain = 0
KSP2 141535Z 17008KT M05/M08 A3033 RMK A01 T10471076  RH  080%=      5-min Rain = 0
KSP2 141536Z 17006KT M05/M08 A3033 RMK A01 T10481076  RH  081%=      5-min Rain = 0
KSP2 141537Z 17006KT M05/M08 A3033 RMK A01 T10471075  RH  081%=      5-min Rain = 0
KSP2 141538Z 16007KT M05/M07 A3033 RMK A01 T10471074  RH  081%=      5-min Rain = 0
KSP2 141539Z 17008KT M05/M07 A3033 RMK A01 T10461074  RH  081%=      5-min Rain = 0
KSP2 141540Z 16008KT M05/M07 A3033 RMK A01 T10461073  RH  081%=      5-min Rain = 0
KSP2 141541Z 16007KT M05/M07 A3033 RMK A01 T10451072  RH  081%=      5-min Rain = 0
KSP2 141542Z 18007KT M05/M07 A3033 RMK A01 T10451073  RH  081%=      5-min Rain = 0
KSP2 141543Z 17008KT M05/M07 A3033 RMK A01 T10451070  RH  082%=      5-min Rain = 0
KSP2 141544Z 17009KT M04/M07 A3033 RMK A01 T10431069  RH  083%=      5-min Rain = 0
KSP2 141545Z 18009KT M04/M07 A3033 RMK A01 T10441069  RH  082%=      5-min Rain = 0
KSP2 141546Z 18009KT M04/M07 A3033 RMK A01 T10441069  RH  083%=      5-min Rain = 0
KSP2 141547Z 18009KT M04/M07 A3033 RMK A01 T10441068  RH  083%=      5-min Rain = 0
KSP2 141548Z 17008KT M04/M07 A3033 RMK A01 T10441068  RH  083%=      5-min Rain = 0
KSP2 141549Z 18008KT M04/M07 A3033 RMK A01 T10431068  RH  083%=      5-min Rain = 0
KSP2 141550Z 18008KT M04/M07 A3033 RMK A01 T10431069  RH  082%=      5-min Rain = 0
KSP2 141551Z 18008KT M04/M07 A3033 RMK A01 T10421068  RH  082%=      5-min Rain = 0
KSP2 141552Z 18008KT M04/M07 A3033 RMK A01 T10421068  RH  082%=      5-min Rain = 0
KSP2 141553Z 18007KT M04/M07 A3033 RMK A01 T10421068  RH  082%=      5-min Rain = 0
KSP2 141554Z 18008KT M04/M07 A3033 RMK A01 T10421067  RH  083%=      5-min Rain = 0
KSP2 141555Z 18008KT M04/M07 A3033 RMK A01 T10411065  RH  083%=      5-min Rain = 0
KSP2 141556Z 18009KT M04/M06 A3033 RMK A01 T10401064  RH  083%=      5-min Rain = 0
KSP2 141557Z 18011KT M04/M07 A3033 RMK A01 T10401065  RH  083%=      5-min Rain = 0
KSP2 141558Z 18008KT M04/M07 A3033 RMK A01 T10411065  RH  083%=      5-min Rain = 0
KSP2 141559Z 19011KT M04/M06 A3033 RMK A01 T10411064  RH  084%=      5-min Rain = 0
KSP2 141600Z 18009KT M04/M07 A3033 RMK A01 T10411065  RH  083%=      5-min Rain = 0
KSP2 141601Z 17009KT M04/M06 A3033 RMK A01 T10401064  RH  084%=      5-min Rain = 0
KSP2 141602Z 18007KT M04/M06 A3033 RMK A01 T10391062  RH  084%=      5-min Rain = 0
KSP2 141603Z 17008KT M04/M06 A3033 RMK A01 T10381062  RH  084%=      5-min Rain = 0
KSP2 141604Z 17008KT M04/M06 A3033 RMK A01 T10381063  RH  083%=      5-min Rain = 0
KSP2 141605Z 17008KT M04/M06 A3033 RMK A01 T10391064  RH  082%=      5-min Rain = 0
KSP2 141606Z 18009KT M04/M06 A3033 RMK A01 T10381063  RH  083%=      5-min Rain = 0
KSP2 141607Z 17009KT M04/M06 A3033 RMK A01 T10371062  RH  083%=      5-min Rain = 0
KSP2 141608Z 18008KT M04/M06 A3033 RMK A01 T10381062  RH  083%=      5-min Rain = 0
KSP2 141609Z 18009KT M04/M06 A3033 RMK A01 T10381062  RH  083%=      5-min Rain = 0
KSP2 141610Z 18009KT M04/M06 A3032 RMK A01 T10381062  RH  084%=      5-min Rain = 0
KSP2 141611Z 18008KT M04/M06 A3032 RMK A01 T10381061  RH  084%=      5-min Rain = 0
KSP2 141612Z 18008KT M04/M06 A3032 RMK A01 T10381062  RH  084%=      5-min Rain = 0
KSP2 141613Z 18009KT M04/M06 A3032 RMK A01 T10381061  RH  084%=      5-min Rain = 0
KSP2 141614Z 18007KT M04/M06 A3032 RMK A01 T10371060  RH  084%=      5-min Rain = 0
KSP2 141615Z 17007KT M04/M06 A3032 RMK A01 T10351058  RH  084%=      5-min Rain = 0
KSP2 141616Z 18009KT M03/M06 A3032 RMK A01 T10341059  RH  083%=      5-min Rain = 0
KSP2 141617Z 17010KT M03/M06 A3032 RMK A01 T10341058  RH  083%=      5-min Rain = 0
KSP2 141618Z 18010KT M03/M06 A3032 RMK A01 T10331057  RH  084%=      5-min Rain = 0
KSP2 141619Z 17008KT M03/M06 A3032 RMK A01 T10341057  RH  084%=      5-min Rain = 0
KSP2 141620Z 18009KT M03/M06 A3032 RMK A01 T10331056  RH  085%=      5-min Rain = 0
KSP2 141621Z 18010KT M03/M05 A3032 RMK A01 T10321053  RH  085%=      5-min Rain = 0
KSP2 141622Z 19010KT M03/M05 A3032 RMK A01 T10311051  RH  086%=      5-min Rain = 0
KSP2 141623Z 19011KT M03/M05 A3032 RMK A01 T10321051  RH  087%=      5-min Rain = 0
KSP2 141624Z 18009KT M03/M05 A3032 RMK A01 T10321051  RH  087%=      5-min Rain = 0
KSP2 141625Z 18008KT M03/M05 A3032 RMK A01 T10311050  RH  087%=      5-min Rain = 0
KSP2 141626Z 17009KT M03/M05 A3032 RMK A01 T10301049  RH  087%=      5-min Rain = 0
KSP2 141627Z 18009KT M03/M05 A3032 RMK A01 T10301049  RH  087%=      5-min Rain = 0
KSP2 141628Z 18009KT M03/M05 A3032 RMK A01 T10301049  RH  087%=      5-min Rain = 0
KSP2 141629Z 18008KT M03/M05 A3032 RMK A01 T10291048  RH  087%=      5-min Rain = 0
KSP2 141630Z 18009KT M03/M05 A3032 RMK A01 T10281048  RH  086%=      5-min Rain = 0
KSP2 141631Z 18010KT M03/M05 A3032 RMK A01 T10281049  RH  085%=      5-min Rain = 0
KSP2 141632Z 18009KT M03/M05 A3032 RMK A01 T10291050  RH  085%=      5-min Rain = 0
KSP2 141633Z 19009KT M03/M05 A3032 RMK A01 T10281049  RH  086%=      5-min Rain = 0
KSP2 141634Z 18011KT M03/M05 A3032 RMK A01 T10271048  RH  086%=      5-min Rain = 0
KSP2 141635Z 17011KT M03/M05 A3032 RMK A01 T10271048  RH  086%=      5-min Rain = 0
KSP2 141636Z 17012KT M03/M05 A3032 RMK A01 T10261047  RH  086%=      5-min Rain = 0
KSP2 141637Z 18013KT M03/M05 A3032 RMK A01 T10261047  RH  086%=      5-min Rain = 0
KSP2 141638Z 18012KT M03/M05 A3032 RMK A01 T10281048  RH  086%=      5-min Rain = 0
KSP2 141639Z 18010KT M03/M05 A3032 RMK A01 T10281047  RH  086%=      5-min Rain = 0
KSP2 141640Z 18009KT M03/M05 A3032 RMK A01 T10271047  RH  086%=      5-min Rain = 0
KSP2 141641Z 19008KT M03/M05 A3032 RMK A01 T10261046  RH  086%=      5-min Rain = 0
KSP2 141642Z 19006KT M02/M05 A3032 RMK A01 T10241045  RH  086%=      5-min Rain = 0
KSP2 141643Z 19010KT M02/M05 A3032 RMK A01 T10231045  RH  085%=      5-min Rain = 0
KSP2 141644Z 19010KT M02/M05 A3032 RMK A01 T10241047  RH  084%=      5-min Rain = 0
KSP2 141645Z 18009KT M03/M05 A3032 RMK A01 T10251047  RH  085%=      5-min Rain = 0
KSP2 141646Z 18009KT M03/M05 A3032 RMK A01 T10251047  RH  085%=      5-min Rain = 0
KSP2 141647Z 18008KT M03/M05 A3032 RMK A01 T10251047  RH  085%=      5-min Rain = 0
KSP2 141648Z 17007KT M03/M05 A3032 RMK A01 T10251046  RH  085%=      5-min Rain = 0
KSP2 141649Z 17008KT M02/M04 A3031 RMK A01 T10221043  RH  086%=      5-min Rain = 0
KSP2 141650Z 18009KT M02/M04 A3031 RMK A01 T10201044  RH  084%=      5-min Rain = 0
KSP2 141651Z 18008KT M02/M05 A3031 RMK A01 T10221047  RH  083%=      5-min Rain = 0
KSP2 141652Z 18011KT M02/M05 A3031 RMK A01 T10231048  RH  083%=      5-min Rain = 0
KSP2 141653Z 18009KT M02/M05 A3031 RMK A01 T10241048  RH  083%=      5-min Rain = 0
KSP2 141654Z 18009KT M02/M05 A3031 RMK A01 T10231047  RH  084%=      5-min Rain = 0
KSP2 141655Z 18009KT M02/M05 A3031 RMK A01 T10231047  RH  083%=      5-min Rain = 0
KSP2 141656Z 17012KT M02/M05 A3031 RMK A01 T10231048  RH  083%=      5-min Rain = 0
KSP2 141657Z 18011KT M02/M05 A3031 RMK A01 T10231047  RH  084%=      5-min Rain = 0
KSP2 141658Z 18012KT M02/M05 A3031 RMK A01 T10231047  RH  083%=      5-min Rain = 0
KSP2 141659Z 18011KT M02/M05 A3031 RMK A01 T10231048  RH  083%=      5-min Rain = 0
KSP2 141700Z 18010KT M02/M05 A3031 RMK A01 T10231046  RH  084%=      5-min Rain = 0
KSP2 141701Z 18012KT M02/M05 A3031 RMK A01 T10221045  RH  084%=      5-min Rain = 0
KSP2 141702Z 18013KT M02/M05 A3031 RMK A01 T10211046  RH  083%=      5-min Rain = 0
KSP2 141703Z 18012KT M02/M05 A3031 RMK A01 T10221046  RH  083%=      5-min Rain = 0
KSP2 141704Z 19010KT M02/M05 A3031 RMK A01 T10221046  RH  084%=      5-min Rain = 0
KSP2 141705Z 18011KT M02/M05 A3031 RMK A01 T10211045  RH  084%=      5-min Rain = 0
KSP2 141706Z 18009KT M02/M05 A3031 RMK A01 T10211045  RH  083%=      5-min Rain = 0
KSP2 141707Z 18009KT M02/M04 A3031 RMK A01 T10201044  RH  084%=      5-min Rain = 0
KSP2 141708Z 17011KT M02/M04 A3031 RMK A01 T10181042  RH  083%=      5-min Rain = 0
KSP2 141709Z 18012KT M02/M04 A3031 RMK A01 T10181044  RH  083%=      5-min Rain = 0
KSP2 141710Z 18011KT M02/M05 A3031 RMK A01 T10191045  RH  082%=      5-min Rain = 0
KSP2 141711Z 18011KT M02/M05 A3031 RMK A01 T10211046  RH  083%=      5-min Rain = 0
KSP2 141712Z 17012KT M02/M04 A3031 RMK A01 T10201044  RH  084%=      5-min Rain = 0
KSP2 141713Z 17013KT M02/M04 A3031 RMK A01 T10191043  RH  084%=      5-min Rain = 0
KSP2 141714Z 19012KT M02/M04 A3031 RMK A01 T10191044  RH  083%=      5-min Rain = 0
KSP2 141715Z 18012KT M02/M04 A3031 RMK A01 T10191044  RH  083%=      5-min Rain = 0
KSP2 141716Z 18011KT M02/M04 A3031 RMK A01 T10191044  RH  083%=      5-min Rain = 0
KSP2 141717Z 17013KT M02/M04 A3031 RMK A01 T10191044  RH  083%=      5-min Rain = 0
KSP2 141718Z 17012KT M02/M04 A3031 RMK A01 T10201044  RH  083%=      5-min Rain = 0
KSP2 141719Z 18014KT M02/M04 A3031 RMK A01 T10201044  RH  084%=      5-min Rain = 0
KSP2 141720Z 18014KT M02/M04 A3031 RMK A01 T10191044  RH  084%=      5-min Rain = 0
KSP2 141721Z 18013KT M02/M04 A3031 RMK A01 T10191044  RH  083%=      5-min Rain = 0
KSP2 141722Z 18011KT M02/M04 A3031 RMK A01 T10201044  RH  083%=      5-min Rain = 0
KSP2 141723Z 18012KT M02/M04 A3031 RMK A01 T10201044  RH  083%=      5-min Rain = 0
KSP2 141724Z 18011KT M02/M04 A3031 RMK A01 T10191044  RH  083%=      5-min Rain = 0
KSP2 141725Z 18010KT M02/M04 A3031 RMK A01 T10181043  RH  083%=      5-min Rain = 0
KSP2 141726Z 18010KT M02/M04 A3031 RMK A01 T10151039  RH  084%=      5-min Rain = 0
KSP2 141727Z 17008KT M01/M04 A3031 RMK A01 T10121039  RH  082%=      5-min Rain = 0
KSP2 141728Z 18010KT M01/M04 A303 RMK A01 T10111040  RH  081%=      5-min Rain = 0
KSP2 141729Z 17009KT M01/M04 A303 RMK A01 T10111042  RH  080%=      5-min Rain = 0
KSP2 141730Z 17011KT M01/M04 A303 RMK A01 T10121041  RH  080%=      5-min Rain = 0
KSP2 141731Z 17012KT M01/M04 A303 RMK A01 T10121043  RH  080%=      5-min Rain = 0
KSP2 141732Z 17012KT M01/M04 A303 RMK A01 T10131043  RH  080%=      5-min Rain = 0
KSP2 141733Z 17011KT M02/M04 A303 RMK A01 T10151043  RH  081%=      5-min Rain = 0
KSP2 141734Z 18010KT M01/M04 A303 RMK A01 T10141042  RH  082%=      5-min Rain = 0
KSP2 141735Z 19010KT M01/M04 A303 RMK A01 T10141041  RH  082%=      5-min Rain = 0
KSP2 141736Z 17012KT M01/M04 A303 RMK A01 T10141042  RH  081%=      5-min Rain = 0
KSP2 141737Z 18011KT M01/M04 A303 RMK A01 T10141041  RH  082%=      5-min Rain = 0
KSP2 141738Z 18012KT M01/M04 A303 RMK A01 T10131041  RH  081%=      5-min Rain = 0
KSP2 141739Z 18014KT M01/M04 A303 RMK A01 T10141041  RH  081%=      5-min Rain = 0
KSP2 141740Z 18014KT M01/M04 A303 RMK A01 T10141042  RH  081%=      5-min Rain = 0
KSP2 141741Z 19012KT M02/M04 A303 RMK A01 T10151043  RH  081%=      5-min Rain = 0
KSP2 141742Z 20012KT M02/M04 A303 RMK A01 T10151042  RH  082%=      5-min Rain = 0
KSP2 141743Z 19011KT M01/M04 A303 RMK A01 T10141041  RH  082%=      5-min Rain = 0
KSP2 141744Z 17012KT M01/M04 A303 RMK A01 T10141042  RH  081%=      5-min Rain = 0
KSP2 141745Z 17013KT M02/M04 A303 RMK A01 T10151043  RH  082%=      5-min Rain = 0
KSP2 141746Z 17010KT M02/M04 A303 RMK A01 T10151041  RH  082%=      5-min Rain = 0
KSP2 141747Z 19011KT M01/M04 A3029 RMK A01 T10131040  RH  082%=      5-min Rain = 0
KSP2 141748Z 19009KT M01/M04 A3029 RMK A01 T10131041  RH  081%=      5-min Rain = 0
KSP2 141749Z 17010KT M01/M04 A3029 RMK A01 T10131041  RH  081%=      5-min Rain = 0
KSP2 141750Z 17013KT M01/M04 A3029 RMK A01 T10121040  RH  081%=      5-min Rain = 0
KSP2 141751Z 18011KT M01/M04 A3029 RMK A01 T10121041  RH  081%=      5-min Rain = 0
KSP2 141752Z 19011KT M01/M04 A3029 RMK A01 T10121041  RH  080%=      5-min Rain = 0
KSP2 141753Z 18013KT M01/M04 A3029 RMK A01 T10121041  RH  081%=      5-min Rain = 0
KSP2 141754Z 18011KT M01/M04 A3029 RMK A01 T10131042  RH  081%=      5-min Rain = 0
KSP2 141755Z 18012KT M01/M04 A3029 RMK A01 T10131041  RH  081%=      5-min Rain = 0
KSP2 141756Z 18011KT M01/M04 A3029 RMK A01 T10121040  RH  081%=      5-min Rain = 0
KSP2 141757Z 18013KT M01/M04 A3029 RMK A01 T10121040  RH  081%=      5-min Rain = 0
KSP2 141758Z 18013KT M01/M04 A3029 RMK A01 T10121040  RH  081%=      5-min Rain = 0
KSP2 141759Z 18011KT M01/M04 A3029 RMK A01 T10121041  RH  081%=      5-min Rain = 0
KSP2 141800Z 18011KT M01/M04 A3029 RMK A01 T10141042  RH  081%=      5-min Rain = 0
KSP2 141801Z 18013KT M01/M04 A3029 RMK A01 T10131039  RH  082%=      5-min Rain = 0
KSP2 141802Z 19011KT M01/M04 A3029 RMK A01 T10121039  RH  082%=      5-min Rain = 0
KSP2 141803Z 18013KT M01/M04 A3028 RMK A01 T10111039  RH  082%=      5-min Rain = 0
KSP2 141804Z 18011KT M01/M04 A3028 RMK A01 T10111038  RH  082%=      5-min Rain = 0
KSP2 141805Z 18011KT M01/M04 A3028 RMK A01 T10091037  RH  082%=      5-min Rain = 0
KSP2 141806Z 19012KT M01/M04 A3028 RMK A01 T10081037  RH  081%=      5-min Rain = 0
KSP2 141807Z 19012KT M01/M04 A3028 RMK A01 T10081038  RH  080%=      5-min Rain = 0
KSP2 141808Z 18012KT M01/M04 A3028 RMK A01 T10081038  RH  080%=      5-min Rain = 0
KSP2 141809Z 18013KT M01/M04 A3028 RMK A01 T10081038  RH  080%=      5-min Rain = 0
KSP2 141810Z 18013KT M01/M04 A3028 RMK A01 T10091039  RH  080%=      5-min Rain = 0
KSP2 141811Z 18010KT M01/M04 A3028 RMK A01 T10101039  RH  081%=      5-min Rain = 0
KSP2 141812Z 18012KT M01/M04 A3028 RMK A01 T10091038  RH  081%=      5-min Rain = 0
KSP2 141813Z 19012KT M01/M04 A3028 RMK A01 T10091037  RH  081%=      5-min Rain = 0
KSP2 141814Z 19012KT M01/M04 A3028 RMK A01 T10081036  RH  081%=      5-min Rain = 0
KSP2 141815Z 19011KT M01/M04 A3028 RMK A01 T10061036  RH  081%=      5-min Rain = 0
KSP2 141816Z 19010KT M01/M04 A3028 RMK A01 T10061036  RH  080%=      5-min Rain = 0
KSP2 141817Z 19011KT M01/M04 A3028 RMK A01 T10061036  RH  080%=      5-min Rain = 0
KSP2 141818Z 18013KT M01/M04 A3028 RMK A01 T10061037  RH  080%=      5-min Rain = 0
KSP2 141819Z 19011KT M01/M04 A3028 RMK A01 T10061036  RH  080%=      5-min Rain = 0
KSP2 141820Z 19012KT M01/M04 A3028 RMK A01 T10061036  RH  080%=      5-min Rain = 0
KSP2 141821Z 19008KT M01/M04 A3028 RMK A01 T10051035  RH  080%=      5-min Rain = 0
KSP2 141822Z 19010G15KT M00/M03 A3028 RMK A01 T10011031  RH  080%=      5-min Rain = 0
KSP2 141823Z 19014KT 00/03 A3027 RMK A01 T00-00-34  RH  078%=      5-min Rain = 0
KSP2 141824Z 18014KT M00/M04 A3028 RMK A01 T10031037  RH  078%=      5-min Rain = 0
KSP2 141825Z 18013KT M00/M04 A3027 RMK A01 T10041036  RH  079%=      5-min Rain = 0
KSP2 141826Z 19011KT M00/M04 A3027 RMK A01 T10041035  RH  079%=      5-min Rain = 0
KSP2 141827Z 19012KT M00/M03 A3027 RMK A01 T10021034  RH  080%=      5-min Rain = 0
KSP2 141828Z 20013KT M00/M03 A3027 RMK A01 T10011033  RH  079%=      5-min Rain = 0
KSP2 141829Z 20012KT M00/M03 A3027 RMK A01 T10011034  RH  078%=      5-min Rain = 0
KSP2 141830Z 19012KT M00/M04 A3027 RMK A01 T10021035  RH  078%=      5-min Rain = 0
KSP2 141831Z 19012KT M00/M03 A3027 RMK A01 T10011033  RH  079%=      5-min Rain = 0
KSP2 141832Z 19012KT M00/M03 A3027 RMK A01 T10011034  RH  078%=      5-min Rain = 0
KSP2 141833Z 18014G19KT M00/M03 A3027 RMK A01 T10011034  RH  078%=      5-min Rain = 0
KSP2 141834Z 18015KT M00/M03 A3027 RMK A01 T10011034  RH  078%=      5-min Rain = 0
KSP2 141835Z 19015KT M00/M04 A3027 RMK A01 T10021035  RH  078%=      5-min Rain = 0
KSP2 141836Z 19012KT M00/M04 A3027 RMK A01 T10031035  RH  079%=      5-min Rain = 0
KSP2 141837Z 19012KT M00/M03 A3027 RMK A01 T10021034  RH  079%=      5-min Rain = 0
KSP2 141838Z 19013KT M00/M03 A3027 RMK A01 T10031034  RH  079%=      5-min Rain = 0
KSP2 141839Z 20013KT M00/M03 A3027 RMK A01 T10021034  RH  079%=      5-min Rain = 0
KSP2 141840Z 20011KT M00/M04 A3026 RMK A01 T10021035  RH  079%=      5-min Rain = 0
KSP2 141841Z 20012KT M00/M03 A3026 RMK A01 T10021033  RH  079%=      5-min Rain = 0
KSP2 141842Z 20012KT M00/M03 A3026 RMK A01 T10011033  RH  079%=      5-min Rain = 0
KSP2 141843Z 19011KT 00/03 A3026 RMK A01 T00000-32  RH  079%=      5-min Rain = 0
KSP2 141844Z 18016KT 00/M03 A3026 RMK A01 T00011032  RH  078%=      5-min Rain = 0
KSP2 141845Z 19013KT 00/03 A3026 RMK A01 T00-00-34  RH  078%=      5-min Rain = 0
KSP2 141846Z 19010KT M00/M03 A3026 RMK A01 T10011034  RH  078%=      5-min Rain = 0
KSP2 141847Z 20015KT M00/M03 A3026 RMK A01 T10011033  RH  079%=      5-min Rain = 0
KSP2 141848Z 19014KT M00/M03 A3026 RMK A01 T10021033  RH  079%=      5-min Rain = 0
KSP2 141849Z 19013G19KT M00/M03 A3026 RMK A01 T10011032  RH  080%=      5-min Rain = 0
KSP2 141850Z 20015KT 00/03 A3026 RMK A01 T00-00-30  RH  080%=      5-min Rain = 0
KSP2 141851Z 21012KT 00/M03 A3026 RMK A01 T00011031  RH  079%=      5-min Rain = 0
KSP2 141852Z 19013KT 00/M03 A3025 RMK A01 T00021031  RH  079%=      5-min Rain = 0
KSP2 141853Z 19012KT 00/M03 A3025 RMK A01 T00021031  RH  078%=      5-min Rain = 0
KSP2 141854Z 19012KT 00/M03 A3025 RMK A01 T00021032  RH  078%=      5-min Rain = 0
KSP2 141855Z 19014KT 00/M03 A3025 RMK A01 T00021031  RH  078%=      5-min Rain = 0
KSP2 141856Z 18016KT 00/M03 A3025 RMK A01 T00021031  RH  079%=      5-min Rain = 0
KSP2 141857Z 20014KT 00/M03 A3025 RMK A01 T00021031  RH  079%=      5-min Rain = 0
KSP2 141858Z 19014KT 00/M03 A3025 RMK A01 T00031030  RH  079%=      5-min Rain = 0
KSP2 141859Z 20015KT 00/M03 A3025 RMK A01 T00031031  RH  078%=      5-min Rain = 0
KSP2 141900Z 21015KT 00/M03 A3025 RMK A01 T00021031  RH  079%=      5-min Rain = 0
KSP2 141901Z 20015KT 00/M03 A3025 RMK A01 T00021031  RH  078%=      5-min Rain = 0
KSP2 141902Z 20013KT 00/M03 A3024 RMK A01 T00021030  RH  079%=      5-min Rain = 0
KSP2 141903Z 19013KT 01/M03 A3024 RMK A01 T00051027  RH  079%=      5-min Rain = 0
KSP2 141904Z 20012KT 01/M03 A3024 RMK A01 T00061028  RH  078%=      5-min Rain = 0
KSP2 141905Z 19013KT 01/M03 A3024 RMK A01 T00071027  RH  078%=      5-min Rain = 0
KSP2 141906Z 18012KT 01/M03 A3024 RMK A01 T00071027  RH  078%=      5-min Rain = 0
KSP2 141907Z 20013KT 01/M03 A3024 RMK A01 T00071028  RH  077%=      5-min Rain = 0
KSP2 141908Z 21012G17KT 01/M03 A3024 RMK A01 T00061029  RH  077%=      5-min Rain = 0
KSP2 141909Z 21014KT 01/M03 A3024 RMK A01 T00061029  RH  077%=      5-min Rain = 0
KSP2 141910Z 20013KT 01/M03 A3024 RMK A01 T00061029  RH  078%=      5-min Rain = 0
KSP2 141911Z 20011KT 01/M03 A3024 RMK A01 T00061028  RH  078%=      5-min Rain = 0
KSP2 141912Z 20011G16KT 01/M03 A3024 RMK A01 T00071028  RH  077%=      5-min Rain = 0
KSP2 141913Z 21015KT 01/M03 A3024 RMK A01 T00071028  RH  077%=      5-min Rain = 0
KSP2 141914Z 20012KT 01/M03 A3024 RMK A01 T00071028  RH  077%=      5-min Rain = 0
KSP2 141915Z 20014KT 01/M03 A3024 RMK A01 T00101025  RH  077%=      5-min Rain = 0
KSP2 141916Z 21015KT 01/M03 A3024 RMK A01 T00101027  RH  076%=      5-min Rain = 0
KSP2 141917Z 21014KT 01/M03 A3024 RMK A01 T00091029  RH  076%=      5-min Rain = 0
KSP2 141918Z 20011KT 01/M03 A3024 RMK A01 T00071029  RH  077%=      5-min Rain = 0
KSP2 141919Z 20014KT 01/M03 A3024 RMK A01 T00081027  RH  077%=      5-min Rain = 0
KSP2 141920Z 20012KT 01/M03 A3024 RMK A01 T00091027  RH  077%=      5-min Rain = 0
KSP2 141921Z 19012KT 01/M03 A3024 RMK A01 T00101026  RH  077%=      5-min Rain = 0
KSP2 141922Z 20011KT 01/M03 A3024 RMK A01 T00111025  RH  077%=      5-min Rain = 0
KSP2 141923Z 20011KT 01/M03 A3024 RMK A01 T00111026  RH  076%=      5-min Rain = 0
KSP2 141924Z 21015KT 01/M03 A3024 RMK A01 T00121026  RH  076%=      5-min Rain = 0
KSP2 141925Z 21013KT 01/M03 A3024 RMK A01 T00101029  RH  075%=      5-min Rain = 0
KSP2 141926Z 20014KT 01/M03 A3024 RMK A01 T00091028  RH  076%=      5-min Rain = 0
KSP2 141927Z 19014KT 01/M03 A3024 RMK A01 T00101027  RH  077%=      5-min Rain = 0
KSP2 141928Z 19014KT 01/M03 A3024 RMK A01 T00101027  RH  077%=      5-min Rain = 0
KSP2 141929Z 20014KT 01/M03 A3024 RMK A01 T00091027  RH  077%=      5-min Rain = 0
KSP2 141930Z 20014KT 01/M03 A3024 RMK A01 T00081028  RH  077%=      5-min Rain = 0
KSP2 141931Z 19013KT 01/M03 A3023 RMK A01 T00071029  RH  077%=      5-min Rain = 0
KSP2 141932Z 19013KT 01/M03 A3023 RMK A01 T00071027  RH  078%=      5-min Rain = 0
KSP2 141933Z 18014KT 01/M03 A3023 RMK A01 T00071028  RH  078%=      5-min Rain = 0
KSP2 141934Z 19014KT 01/M03 A3023 RMK A01 T00081026  RH  078%=      5-min Rain = 0
KSP2 141935Z 20012G17KT 01/M03 A3023 RMK A01 T00071028  RH  077%=      5-min Rain = 0
KSP2 141936Z 19013KT 01/M03 A3023 RMK A01 T00081027  RH  078%=      5-min Rain = 0
KSP2 141937Z 20013KT 01/M03 A3023 RMK A01 T00081027  RH  077%=      5-min Rain = 0
KSP2 141938Z 20014KT 01/M03 A3023 RMK A01 T00081027  RH  077%=      5-min Rain = 0
KSP2 141939Z 20014KT 01/M03 A3023 RMK A01 T00081027  RH  077%=      5-min Rain = 0
KSP2 141940Z 19014KT 01/M03 A3023 RMK A01 T00081027  RH  077%=      5-min Rain = 0
KSP2 141941Z 19015KT 01/M03 A3023 RMK A01 T00081027  RH  077%=      5-min Rain = 0
KSP2 141942Z 19015KT 01/M03 A3023 RMK A01 T00071027  RH  078%=      5-min Rain = 0
KSP2 141943Z 19013KT 01/M03 A3023 RMK A01 T00071028  RH  078%=      5-min Rain = 0
KSP2 141944Z 19012KT 01/M03 A3023 RMK A01 T00061029  RH  078%=      5-min Rain = 0
KSP2 141945Z 18013KT 01/M03 A3023 RMK A01 T00061027  RH  079%=      5-min Rain = 0
KSP2 141946Z 19013KT 01/M03 A3023 RMK A01 T00081026  RH  078%=      5-min Rain = 0
KSP2 141947Z 19014KT 01/M02 A3023 RMK A01 T00101024  RH  078%=      5-min Rain = 0
KSP2 141948Z 19015KT 01/M03 A3023 RMK A01 T00101026  RH  077%=      5-min Rain = 0
KSP2 141949Z 19017KT 01/M03 A3023 RMK A01 T00091027  RH  077%=      5-min Rain = 0
KSP2 141950Z 19016KT 01/M03 A3023 RMK A01 T00071028  RH  077%=      5-min Rain = 0
KSP2 141951Z 19013KT 01/M03 A3023 RMK A01 T00071027  RH  078%=      5-min Rain = 0
KSP2 141952Z 19013KT 01/M03 A3023 RMK A01 T00081026  RH  078%=      5-min Rain = 0
KSP2 141953Z 19012KT 01/M03 A3023 RMK A01 T00081026  RH  078%=      5-min Rain = 0
KSP2 141954Z 18015KT 01/M03 A3023 RMK A01 T00081025  RH  078%=      5-min Rain = 0
KSP2 141955Z 18015KT 01/M03 A3023 RMK A01 T00081026  RH  078%=      5-min Rain = 0
KSP2 141956Z 19015KT 01/M03 A3022 RMK A01 T00081026  RH  078%=      5-min Rain = 0
KSP2 141957Z 18013KT 01/M03 A3022 RMK A01 T00081026  RH  078%=      5-min Rain = 0
KSP2 141958Z 19012KT 01/M03 A3022 RMK A01 T00081025  RH  078%=      5-min Rain = 0
KSP2 141959Z 19016KT 01/M02 A3022 RMK A01 T00091024  RH  079%=      5-min Rain = 0
KSP2 142000Z 19016KT 01/M03 A3022 RMK A01 T00091025  RH  078%=      5-min Rain = 0
KSP2 142001Z 18012KT 01/M03 A3022 RMK A01 T00091026  RH  078%=      5-min Rain = 0
KSP2 142002Z 20013KT 01/M02 A3022 RMK A01 T00091024  RH  078%=      5-min Rain = 0
KSP2 142003Z 19013KT 01/M02 A3022 RMK A01 T00101024  RH  078%=      5-min Rain = 0
KSP2 142004Z 18013KT 01/M02 A3022 RMK A01 T00101024  RH  078%=      5-min Rain = 0
KSP2 142005Z 18014KT 01/M02 A3022 RMK A01 T00101024  RH  078%=      5-min Rain = 0
KSP2 142006Z 19014KT 01/M02 A3022 RMK A01 T00091024  RH  078%=      5-min Rain = 0
KSP2 142007Z 20012KT 01/M02 A3022 RMK A01 T00101023  RH  078%=      5-min Rain = 0
KSP2 142008Z 20013KT 01/M02 A3022 RMK A01 T00111024  RH  077%=      5-min Rain = 0
KSP2 142009Z 20013KT 01/M03 A3022 RMK A01 T00101025  RH  077%=      5-min Rain = 0
KSP2 142010Z 19014KT 01/M03 A3021 RMK A01 T00091025  RH  078%=      5-min Rain = 0
KSP2 142011Z 19015KT 01/M02 A3021 RMK A01 T00091024  RH  078%=      5-min Rain = 0
KSP2 142012Z 19017KT 01/M02 A3021 RMK A01 T00081024  RH  079%=      5-min Rain = 0
KSP2 142013Z 19016KT 01/M03 A3021 RMK A01 T00081025  RH  078%=      5-min Rain = 0
KSP2 142014Z 19014KT 01/M02 A3021 RMK A01 T00091024  RH  079%=      5-min Rain = 0
KSP2 142015Z 19015KT 01/M02 A3021 RMK A01 T00101023  RH  079%=      5-min Rain = 0
KSP2 142016Z 19015KT 01/M02 A3021 RMK A01 T00101024  RH  078%=      5-min Rain = 0
KSP2 142017Z 20012KT 01/M03 A3021 RMK A01 T00091026  RH  078%=      5-min Rain = 0
KSP2 142018Z 20011KT 01/M03 A3021 RMK A01 T00081025  RH  078%=      5-min Rain = 0
KSP2 142019Z 19011KT 01/M02 A3021 RMK A01 T00101022  RH  079%=      5-min Rain = 0
KSP2 142020Z 19012KT 01/M02 A3021 RMK A01 T00121021  RH  078%=      5-min Rain = 0
KSP2 142021Z 20014KT 01/M02 A3021 RMK A01 T00121023  RH  077%=      5-min Rain = 0
KSP2 142022Z 20013KT 01/M03 A3021 RMK A01 T00111025  RH  077%=      5-min Rain = 0
KSP2 142023Z 18013KT 01/M02 A3021 RMK A01 T00111024  RH  078%=      5-min Rain = 0
KSP2 142024Z 20011KT 01/M02 A3021 RMK A01 T00121022  RH  078%=      5-min Rain = 0
KSP2 142025Z 19012KT 01/M02 A3021 RMK A01 T00131022  RH  077%=      5-min Rain = 0
KSP2 142026Z 18013KT 01/M02 A3021 RMK A01 T00131022  RH  077%=      5-min Rain = 0
KSP2 142027Z 18013KT 01/M02 A3021 RMK A01 T00121024  RH  077%=      5-min Rain = 0
KSP2 142028Z 18014KT 01/M02 A3021 RMK A01 T00111023  RH  078%=      5-min Rain = 0
KSP2 142029Z 18015KT 01/M02 A3021 RMK A01 T00121023  RH  078%=      5-min Rain = 0
KSP2 142030Z 19014KT 01/M02 A3021 RMK A01 T00111024  RH  078%=      5-min Rain = 0
KSP2 142031Z 19011KT 01/M02 A3021 RMK A01 T00101024  RH  078%=      5-min Rain = 0
KSP2 142032Z 19011KT 01/M02 A3021 RMK A01 T00111021  RH  079%=      5-min Rain = 0
KSP2 142033Z 19013KT 01/M02 A3021 RMK A01 T00131021  RH  078%=      5-min Rain = 0
KSP2 142034Z 19015KT 01/M02 A3021 RMK A01 T00131022  RH  077%=      5-min Rain = 0
KSP2 142035Z 18015KT 01/M02 A3021 RMK A01 T00121023  RH  078%=      5-min Rain = 0
KSP2 142036Z 18015KT 01/M02 A3021 RMK A01 T00121024  RH  077%=      5-min Rain = 0
KSP2 142037Z 18014KT 01/M02 A302 RMK A01 T00111023  RH  078%=      5-min Rain = 0
KSP2 142038Z 18014KT 01/M02 A302 RMK A01 T00121022  RH  078%=      5-min Rain = 0
KSP2 142039Z 18014KT 01/M02 A302 RMK A01 T00121023  RH  078%=      5-min Rain = 0
KSP2 142040Z 18013KT 01/M02 A302 RMK A01 T00111023  RH  078%=      5-min Rain = 0
KSP2 142041Z 19014KT 01/M02 A302 RMK A01 T00121022  RH  078%=      5-min Rain = 0
KSP2 142042Z 19013KT 01/M02 A302 RMK A01 T00131020  RH  078%=      5-min Rain = 0
KSP2 142043Z 18014KT 01/M02 A302 RMK A01 T00141021  RH  077%=      5-min Rain = 0
KSP2 142044Z 19012G19KT 01/M02 A302 RMK A01 T00141022  RH  077%=      5-min Rain = 0
KSP2 142045Z 19016KT 01/M02 A302 RMK A01 T00131022  RH  077%=      5-min Rain = 0
KSP2 142046Z 19016KT 01/M02 A302 RMK A01 T00131023  RH  077%=      5-min Rain = 0
KSP2 142047Z 19014KT 01/M03 A302 RMK A01 T00111025  RH  077%=      5-min Rain = 0
KSP2 142048Z 21011KT 01/M02 A302 RMK A01 T00101023  RH  078%=      5-min Rain = 0
KSP2 142049Z 19012KT 01/M02 A302 RMK A01 T00121022  RH  078%=      5-min Rain = 0
KSP2 142050Z 19012KT 01/M02 A302 RMK A01 T00131020  RH  078%=      5-min Rain = 0
KSP2 142051Z 19015KT 02/M02 A302 RMK A01 T00151020  RH  078%=      5-min Rain = 0
KSP2 142052Z 19015KT 01/M02 A302 RMK A01 T00141022  RH  077%=      5-min Rain = 0
KSP2 142053Z 18015KT 01/M02 A302 RMK A01 T00121023  RH  077%=      5-min Rain = 0
KSP2 142054Z 18014KT 01/M02 A302 RMK A01 T00111024  RH  077%=      5-min Rain = 0
KSP2 142055Z 19013KT 01/M02 A302 RMK A01 T00121022  RH  078%=      5-min Rain = 0
KSP2 142056Z 20015KT 01/M02 A302 RMK A01 T00141021  RH  078%=      5-min Rain = 0
KSP2 142057Z 20012KT 01/M02 A302 RMK A01 T00141022  RH  077%=      5-min Rain = 0
KSP2 142058Z 20013KT 01/M02 A302 RMK A01 T00141022  RH  077%=      5-min Rain = 0
KSP2 142059Z 20010KT 01/M02 A302 RMK A01 T00131022  RH  077%=      5-min Rain = 0
KSP2 142100Z 18015KT 02/M02 A3019 RMK A01 T00151020  RH  077%=      5-min Rain = 0
KSP2 142101Z 19014KT 01/M02 A3019 RMK A01 T00141023  RH  076%=      5-min Rain = 0
KSP2 142102Z 19011KT 01/M02 A3019 RMK A01 T00131024  RH  077%=      5-min Rain = 0
KSP2 142103Z 20012KT 01/M02 A3019 RMK A01 T00111024  RH  077%=      5-min Rain = 0
KSP2 142104Z 20013KT 01/M02 A3019 RMK A01 T00111023  RH  078%=      5-min Rain = 0
KSP2 142105Z 20015KT 01/M02 A3019 RMK A01 T00121022  RH  078%=      5-min Rain = 0
KSP2 142106Z 20015KT 01/M02 A3019 RMK A01 T00131023  RH  077%=      5-min Rain = 0
KSP2 142107Z 21014KT 01/M02 A3019 RMK A01 T00131023  RH  077%=      5-min Rain = 0
KSP2 142108Z 20013KT 01/M03 A3019 RMK A01 T00121025  RH  077%=      5-min Rain = 0
KSP2 142109Z 21016KT 01/M02 A3019 RMK A01 T00101024  RH  078%=      5-min Rain = 0
KSP2 142110Z 20014KT 01/M03 A3019 RMK A01 T00101025  RH  078%=      5-min Rain = 0
KSP2 142111Z 20012KT 01/M02 A3019 RMK A01 T00091024  RH  078%=      5-min Rain = 0
KSP2 142112Z 20010KT 01/M02 A3019 RMK A01 T00101024  RH  078%=      5-min Rain = 0
KSP2 142113Z 22009KT 01/M02 A3019 RMK A01 T00111022  RH  079%=      5-min Rain = 0
KSP2 142114Z 20009KT 01/M02 A3019 RMK A01 T00121022  RH  078%=      5-min Rain = 0
KSP2 142115Z 19010KT 01/M02 A3019 RMK A01 T00121022  RH  078%=      5-min Rain = 0
KSP2 142116Z 20013KT 01/M02 A3019 RMK A01 T00131021  RH  078%=      5-min Rain = 0
KSP2 142117Z 21013KT 01/M02 A3019 RMK A01 T00131021  RH  078%=      5-min Rain = 0
KSP2 142118Z 21010KT 01/M02 A3019 RMK A01 T00121023  RH  077%=      5-min Rain = 0
KSP2 142119Z 21010KT 01/M02 A3019 RMK A01 T00121022  RH  078%=      5-min Rain = 0
KSP2 142120Z 22009KT 01/M02 A3019 RMK A01 T00121022  RH  078%=      5-min Rain = 0
KSP2 142121Z 21010KT 01/M02 A3019 RMK A01 T00131020  RH  078%=      5-min Rain = 0
KSP2 142122Z 21014KT 01/M02 A3019 RMK A01 T00141021  RH  078%=      5-min Rain = 0
KSP2 142123Z 21012KT 01/M02 A3019 RMK A01 T00131022  RH  077%=      5-min Rain = 0
KSP2 142124Z 20011KT 01/M02 A3018 RMK A01 T00131022  RH  078%=      5-min Rain = 0
KSP2 142125Z 20011KT 01/M02 A3018 RMK A01 T00121022  RH  078%=      5-min Rain = 0
KSP2 142126Z 20011KT 01/M02 A3018 RMK A01 T00121020  RH  079%=      5-min Rain = 0
KSP2 142127Z 20009KT 01/M02 A3018 RMK A01 T00131020  RH  079%=      5-min Rain = 0
KSP2 142128Z 18010KT 01/M02 A3018 RMK A01 T00131020  RH  079%=      5-min Rain = 0
KSP2 142129Z 20013KT 01/M02 A3018 RMK A01 T00141020  RH  078%=      5-min Rain = 0
KSP2 142130Z 21013KT 01/M02 A3018 RMK A01 T00141020  RH  078%=      5-min Rain = 0
KSP2 142131Z 19012KT 01/M02 A3018 RMK A01 T00141021  RH  078%=      5-min Rain = 0
KSP2 142132Z 19012KT 01/M02 A3018 RMK A01 T00141020  RH  078%=      5-min Rain = 0
KSP2 142133Z 20013KT 01/M02 A3018 RMK A01 T00141020  RH  078%=      5-min Rain = 0
KSP2 142134Z 21013KT 01/M02 A3018 RMK A01 T00131021  RH  078%=      5-min Rain = 0
KSP2 142135Z 21011KT 01/M02 A3018 RMK A01 T00121021  RH  079%=      5-min Rain = 0
KSP2 142136Z 20010KT 01/M02 A3018 RMK A01 T00121021  RH  078%=      5-min Rain = 0
KSP2 142137Z 21014KT 01/M02 A3018 RMK A01 T00131020  RH  079%=      5-min Rain = 0
KSP2 142138Z 22012KT 01/M02 A3018 RMK A01 T00141019  RH  079%=      5-min Rain = 0
KSP2 142139Z 21011KT 01/M02 A3018 RMK A01 T00141020  RH  078%=      5-min Rain = 0
KSP2 142140Z 21011KT 01/M02 A3018 RMK A01 T00141020  RH  078%=      5-min Rain = 0
KSP2 142141Z 21013KT 01/M02 A3018 RMK A01 T00141019  RH  078%=      5-min Rain = 0
KSP2 142142Z 21010KT 01/M02 A3018 RMK A01 T00141019  RH  079%=      5-min Rain = 0
KSP2 142143Z 21011KT 01/M02 A3018 RMK A01 T00141019  RH  079%=      5-min Rain = 0
KSP2 142144Z 22011KT 02/M02 A3018 RMK A01 T00151019  RH  078%=      5-min Rain = 0
KSP2 142145Z 21013KT 02/M02 A3018 RMK A01 T00151019  RH  078%=      5-min Rain = 0
KSP2 142146Z 21012G17KT 01/M02 A3018 RMK A01 T00141020  RH  078%=      5-min Rain = 0
KSP2 142147Z 21011KT 01/M02 A3018 RMK A01 T00141021  RH  078%=      5-min Rain = 0
KSP2 142148Z 21012KT 01/M02 A3017 RMK A01 T00131021  RH  079%=      5-min Rain = 0
KSP2 142149Z 21012KT 01/M02 A3017 RMK A01 T00131020  RH  079%=      5-min Rain = 0
KSP2 142150Z 20014KT 01/M02 A3017 RMK A01 T00131020  RH  079%=      5-min Rain = 0
KSP2 142151Z 20015KT 01/M02 A3017 RMK A01 T00131020  RH  079%=      5-min Rain = 0
KSP2 142152Z 20013KT 01/M02 A3017 RMK A01 T00131020  RH  079%=      5-min Rain = 0
KSP2 142153Z 19010KT 01/M02 A3017 RMK A01 T00121020  RH  079%=      5-min Rain = 0
KSP2 142154Z 19011KT 01/M02 A3017 RMK A01 T00131019  RH  079%=      5-min Rain = 0
KSP2 142155Z 18012KT 01/M02 A3017 RMK A01 T00141018  RH  079%=      5-min Rain = 0
KSP2 142156Z 18013KT 01/M02 A3017 RMK A01 T00141019  RH  078%=      5-min Rain = 0
KSP2 142157Z 18013KT 01/M02 A3017 RMK A01 T00141020  RH  079%=      5-min Rain = 0
KSP2 142158Z 19014G19KT 01/M02 A3017 RMK A01 T00141018  RH  079%=      5-min Rain = 0
KSP2 142159Z 19013KT 01/M02 A3017 RMK A01 T00141017  RH  079%=      5-min Rain = 0
KSP2 142200Z 19015KT 02/M02 A3017 RMK A01 T00151018  RH  079%=      5-min Rain = 0
KSP2 142201Z 18011KT 01/M02 A3017 RMK A01 T00141019  RH  079%=      5-min Rain = 0
KSP2 142202Z 19013KT 01/M02 A3017 RMK A01 T00131019  RH  079%=      5-min Rain = 0
KSP2 142203Z 18014KT 01/M02 A3017 RMK A01 T00131019  RH  079%=      5-min Rain = 0
KSP2 142204Z 19012KT 01/M02 A3017 RMK A01 T00121020  RH  079%=      5-min Rain = 0
KSP2 142205Z 18012KT 01/M02 A3017 RMK A01 T00111020  RH  080%=      5-min Rain = 0
KSP2 142206Z 18009KT 01/M02 A3017 RMK A01 T00111020  RH  080%=      5-min Rain = 0
KSP2 142207Z 18014KT 01/M02 A3016 RMK A01 T00121017  RH  081%=      5-min Rain = 0
KSP2 142208Z 19013KT 01/M02 A3017 RMK A01 T00121018  RH  080%=      5-min Rain = 0
KSP2 142209Z 19013KT 01/M02 A3017 RMK A01 T00131017  RH  080%=      5-min Rain = 0
KSP2 142210Z 19012KT 01/M02 A3016 RMK A01 T00131018  RH  080%=      5-min Rain = 0
KSP2 142211Z 19013KT 01/M02 A3016 RMK A01 T00131018  RH  080%=      5-min Rain = 0
KSP2 142212Z 19012KT 01/M02 A3016 RMK A01 T00141018  RH  080%=      5-min Rain = 0
KSP2 142213Z 20012KT 02/M02 A3016 RMK A01 T00151016  RH  080%=      5-min Rain = 0
KSP2 142214Z 20014G19KT 02/M02 A3016 RMK A01 T00161016  RH  079%=      5-min Rain = 0
KSP2 142215Z 19012KT 02/M02 A3016 RMK A01 T00161017  RH  078%=      5-min Rain = 0
KSP2 142216Z 18016KT 02/M02 A3016 RMK A01 T00161017  RH  079%=      5-min Rain = 0
KSP2 142217Z 19014KT 02/M02 A3016 RMK A01 T00151018  RH  079%=      5-min Rain = 0
KSP2 142218Z 19013KT 01/M02 A3016 RMK A01 T00141018  RH  079%=      5-min Rain = 0
KSP2 142219Z 18013KT 01/M02 A3016 RMK A01 T00141018  RH  080%=      5-min Rain = 0
KSP2 142220Z 17015KT 01/M02 A3016 RMK A01 T00141017  RH  080%=      5-min Rain = 0
KSP2 142221Z 17015KT 01/M02 A3016 RMK A01 T00131018  RH  080%=      5-min Rain = 0
KSP2 142222Z 18015KT 01/M02 A3016 RMK A01 T00131018  RH  080%=      5-min Rain = 0
KSP2 142223Z 18014KT 01/M02 A3016 RMK A01 T00131018  RH  080%=      5-min Rain = 0
KSP2 142224Z 18013KT 01/M02 A3016 RMK A01 T00131017  RH  080%=      5-min Rain = 0
KSP2 142225Z 19014KT 01/M02 A3016 RMK A01 T00131017  RH  080%=      5-min Rain = 0
KSP2 142226Z 19015KT 01/M02 A3016 RMK A01 T00141017  RH  080%=      5-min Rain = 0
KSP2 142227Z 18014KT 01/M02 A3016 RMK A01 T00141018  RH  080%=      5-min Rain = 0
KSP2 142228Z 19015KT 01/M02 A3016 RMK A01 T00131018  RH  080%=      5-min Rain = 0
KSP2 142229Z 20014G19KT 01/M02 A3016 RMK A01 T00131017  RH  080%=      5-min Rain = 0
KSP2 142230Z 19015KT 01/M02 A3016 RMK A01 T00141016  RH  080%=      5-min Rain = 0
KSP2 142231Z 20015KT 01/M02 A3016 RMK A01 T00141017  RH  080%=      5-min Rain = 0
KSP2 142232Z 19013KT 01/M02 A3016 RMK A01 T00141017  RH  080%=      5-min Rain = 0
KSP2 142233Z 19012KT 01/M02 A3016 RMK A01 T00141017  RH  080%=      5-min Rain = 0
KSP2 142234Z 20012KT 02/M02 A3016 RMK A01 T00151015  RH  080%=      5-min Rain = 0
KSP2 142235Z 19013KT 02/M02 A3016 RMK A01 T00171015  RH  080%=      5-min Rain = 0
KSP2 142236Z 20013KT 02/M02 A3016 RMK A01 T00171015  RH  079%=      5-min Rain = 0
KSP2 142237Z 19013KT 02/M02 A3016 RMK A01 T00171015  RH  079%=      5-min Rain = 0
KSP2 142238Z 20011KT 02/M02 A3016 RMK A01 T00171015  RH  079%=      5-min Rain = 0
KSP2 142239Z 20012KT 02/M01 A3016 RMK A01 T00171014  RH  080%=      5-min Rain = 0
KSP2 142240Z 18014KT 02/M01 A3016 RMK A01 T00171014  RH  080%=      5-min Rain = 0
KSP2 142241Z 19013G19KT 02/M01 A3016 RMK A01 T00171014  RH  080%=      5-min Rain = 0
KSP2 142242Z 20015KT 02/M01 A3016 RMK A01 T00181014  RH  080%=      5-min Rain = 0
KSP2 142243Z 19015KT 02/M02 A3016 RMK A01 T00171015  RH  079%=      5-min Rain = 0
KSP2 142244Z 19015KT 02/M02 A3016 RMK A01 T00161016  RH  079%=      5-min Rain = 0
KSP2 142245Z 19015KT 02/M02 A3016 RMK A01 T00161015  RH  080%=      5-min Rain = 0
KSP2 142246Z 19015KT 02/M02 A3016 RMK A01 T00161015  RH  080%=      5-min Rain = 0
KSP2 142247Z 19013KT 02/M02 A3016 RMK A01 T00161015  RH  080%=      5-min Rain = 0
KSP2 142248Z 18013KT 02/M01 A3016 RMK A01 T00161014  RH  080%=      5-min Rain = 0
KSP2 142249Z 19013KT 02/M01 A3016 RMK A01 T00171014  RH  080%=      5-min Rain = 0
KSP2 142250Z 18012KT 02/M01 A3016 RMK A01 T00161014  RH  080%=      5-min Rain = 0
KSP2 142251Z 20011KT 02/M01 A3016 RMK A01 T00171013  RH  080%=      5-min Rain = 0
KSP2 142252Z 19011KT 02/M01 A3016 RMK A01 T00171013  RH  080%=      5-min Rain = 0
KSP2 142253Z 18013G18KT 02/M01 A3016 RMK A01 T00181013  RH  080%=      5-min Rain = 0
KSP2 142254Z 18014KT 02/M01 A3015 RMK A01 T00181013  RH  080%=      5-min Rain = 0
KSP2 142255Z 18014KT 02/M01 A3016 RMK A01 T00171014  RH  080%=      5-min Rain = 0
KSP2 142256Z 19014KT 02/M02 A3015 RMK A01 T00161015  RH  080%=      5-min Rain = 0
KSP2 142257Z 18015KT 02/M01 A3015 RMK A01 T00161014  RH  081%=      5-min Rain = 0
KSP2 142258Z 18014KT 02/M01 A3015 RMK A01 T00161014  RH  080%=      5-min Rain = 0
KSP2 142259Z 18014KT 02/M01 A3015 RMK A01 T00161014  RH  080%=      5-min Rain = 0
KSP2 142300Z 19012KT 02/M01 A3015 RMK A01 T00171014  RH  080%=      5-min Rain = 0
KSP2 142301Z 19010KT 02/M01 A3015 RMK A01 T00171012  RH  081%=      5-min Rain = 0
KSP2 142302Z 19014KT 02/M01 A3015 RMK A01 T00181012  RH  081%=      5-min Rain = 0
KSP2 142303Z 19012KT 02/M01 A3015 RMK A01 T00181012  RH  080%=      5-min Rain = 0
KSP2 142304Z 19015KT 02/M01 A3015 RMK A01 T00191012  RH  080%=      5-min Rain = 0
KSP2 142305Z 20015KT 02/M01 A3015 RMK A01 T00191012  RH  080%=      5-min Rain = 0
KSP2 142306Z 20014KT 02/M01 A3015 RMK A01 T00181013  RH  080%=      5-min Rain = 0
KSP2 142307Z 19013KT 02/M01 A3015 RMK A01 T00181013  RH  080%=      5-min Rain = 0
KSP2 142308Z 19014KT 02/M01 A3015 RMK A01 T00171013  RH  080%=      5-min Rain = 0
KSP2 142309Z 20011KT 02/M01 A3015 RMK A01 T00171012  RH  081%=      5-min Rain = 0
KSP2 142310Z 20015KT 02/M01 A3015 RMK A01 T00181012  RH  081%=      5-min Rain = 0
KSP2 142311Z 20014KT 02/M01 A3015 RMK A01 T00181012  RH  080%=      5-min Rain = 0
KSP2 142312Z 20013KT 02/M01 A3015 RMK A01 T00181012  RH  081%=      5-min Rain = 0
KSP2 142313Z 19014KT 02/M01 A3015 RMK A01 T00181012  RH  080%=      5-min Rain = 0
KSP2 142314Z 18017KT 02/M01 A3015 RMK A01 T00171013  RH  081%=      5-min Rain = 0
KSP2 142315Z 18017KT 02/M01 A3015 RMK A01 T00161014  RH  080%=      5-min Rain = 0
KSP2 142316Z 18015KT 02/M01 A3015 RMK A01 T00151014  RH  081%=      5-min Rain = 0
KSP2 142317Z 18014KT 02/M01 A3015 RMK A01 T00151014  RH  081%=      5-min Rain = 0
KSP2 142318Z 19012KT 02/M01 A3015 RMK A01 T00151014  RH  081%=      5-min Rain = 0
KSP2 142319Z 19014KT 02/M01 A3015 RMK A01 T00151013  RH  082%=      5-min Rain = 0
KSP2 142320Z 19015KT 02/M01 A3015 RMK A01 T00161013  RH  082%=      5-min Rain = 0
KSP2 142321Z 20013KT 02/M01 A3015 RMK A01 T00161013  RH  081%=      5-min Rain = 0
KSP2 142322Z 20015KT 02/M01 A3015 RMK A01 T00161013  RH  081%=      5-min Rain = 0
KSP2 142323Z 19014KT 02/M01 A3015 RMK A01 T00151014  RH  081%=      5-min Rain = 0
KSP2 142324Z 19015KT 02/M01 A3015 RMK A01 T00151014  RH  081%=      5-min Rain = 0
KSP2 142325Z 20014KT 01/M01 A3015 RMK A01 T00141014  RH  081%=      5-min Rain = 0
KSP2 142326Z 19012G17KT 02/M01 A3015 RMK A01 T00151014  RH  082%=      5-min Rain = 0
KSP2 142327Z 18012G17KT 02/M01 A3015 RMK A01 T00151013  RH  082%=      5-min Rain = 0
KSP2 142328Z 18015KT 02/M01 A3015 RMK A01 T00151013  RH  082%=      5-min Rain = 0
KSP2 142329Z 19015KT 02/M01 A3015 RMK A01 T00151013  RH  082%=      5-min Rain = 0
KSP2 142330Z 18014KT 01/M01 A3015 RMK A01 T00141013  RH  082%=      5-min Rain = 0
KSP2 142331Z 18014KT 02/M01 A3015 RMK A01 T00151013  RH  082%=      5-min Rain = 0
KSP2 142332Z 19012KT 01/M01 A3015 RMK A01 T00141013  RH  082%=      5-min Rain = 0
KSP2 142333Z 19013KT 01/M01 A3015 RMK A01 T00141013  RH  082%=      5-min Rain = 0
KSP2 142334Z 20013KT 01/M01 A3015 RMK A01 T00141013  RH  082%=      5-min Rain = 0
KSP2 142335Z 19012KT 02/M01 A3015 RMK A01 T00151013  RH  082%=      5-min Rain = 0
KSP2 142336Z 18012G18KT 01/M01 A3015 RMK A01 T00141013  RH  082%=      5-min Rain = 0
KSP2 142337Z 19015KT 02/M01 A3015 RMK A01 T00151013  RH  082%=      5-min Rain = 0
KSP2 142338Z 18013KT 01/M01 A3015 RMK A01 T00141013  RH  082%=      5-min Rain = 0
KSP2 142339Z 19012KT 01/M01 A3015 RMK A01 T00141014  RH  082%=      5-min Rain = 0
KSP2 142340Z 19014KT 01/M01 A3015 RMK A01 T00131014  RH  082%=      5-min Rain = 0
KSP2 142341Z 19014KT 01/M01 A3015 RMK A01 T00131014  RH  082%=      5-min Rain = 0
KSP2 142342Z 19013KT 01/M01 A3015 RMK A01 T00121014  RH  083%=      5-min Rain = 0
KSP2 142343Z 19010KT 01/M01 A3015 RMK A01 T00131013  RH  083%=      5-min Rain = 0
KSP2 142344Z 18011KT 01/M01 A3015 RMK A01 T00131013  RH  083%=      5-min Rain = 0
KSP2 142345Z 18014KT 01/M01 A3015 RMK A01 T00131013  RH  083%=      5-min Rain = 0
KSP2 142346Z 19012KT 01/M01 A3015 RMK A01 T00131013  RH  083%=      5-min Rain = 0
KSP2 142347Z 18010KT 01/M01 A3015 RMK A01 T00131013  RH  083%=      5-min Rain = 0
KSP2 142348Z 20010KT 01/M01 A3015 RMK A01 T00131013  RH  083%=      5-min Rain = 0
KSP2 142349Z 18013G18KT 01/M01 A3015 RMK A01 T00131012  RH  083%=      5-min Rain = 0
KSP2 142350Z 19016KT 01/M01 A3015 RMK A01 T00131013  RH  083%=      5-min Rain = 0
KSP2 142351Z 19016KT 01/M01 A3015 RMK A01 T00121014  RH  083%=      5-min Rain = 0
KSP2 142352Z 18015KT 01/M01 A3015 RMK A01 T00111014  RH  083%=      5-min Rain = 0
KSP2 142353Z 18015KT 01/M01 A3015 RMK A01 T00111014  RH  084%=      5-min Rain = 0
KSP2 142354Z 19014KT 01/M01 A3015 RMK A01 T00111014  RH  084%=      5-min Rain = 0
KSP2 142355Z 18016KT 01/M01 A3015 RMK A01 T00101013  RH  084%=      5-min Rain = 0
KSP2 142356Z 18014KT 01/M01 A3015 RMK A01 T00111013  RH  084%=      5-min Rain = 0
KSP2 142357Z 17014KT 01/M01 A3015 RMK A01 T00101013  RH  085%=      5-min Rain = 0
KSP2 142358Z 18012KT 01/M01 A3015 RMK A01 T00101013  RH  085%=      5-min Rain = 0
KSP2 142359Z 18014KT 01/M01 A3015 RMK A01 T00101012  RH  085%=      5-min Rain = 0
KSP2 150000Z 18012KT 01/M01 A3015 RMK A01 T00101012  RH  085%=      5-min Rain = 0
KSP2 150001Z 19013KT 01/M01 A3015 RMK A01 T00101012  RH  085%=      5-min Rain = 0
KSP2 150002Z 18015KT 01/M01 A3015 RMK A01 T00101013  RH  085%=      5-min Rain = 0
KSP2 150003Z 18014G20KT 01/M01 A3015 RMK A01 T00101013  RH  085%=      5-min Rain = 0
KSP2 150004Z 18014KT 01/M01 A3015 RMK A01 T00101012  RH  085%=      5-min Rain = 0
KSP2 150005Z 18012KT 01/M01 A3015 RMK A01 T00101012  RH  085%=      5-min Rain = 0
KSP2 150006Z 19013KT 01/M01 A3015 RMK A01 T00101012  RH  085%=      5-min Rain = 0
KSP2 150007Z 18012KT 01/M01 A3015 RMK A01 T00101012  RH  085%=      5-min Rain = 0
KSP2 150008Z 19013KT 01/M01 A3015 RMK A01 T00101012  RH  086%=      5-min Rain = 0
KSP2 150009Z 19011KT 01/M01 A3015 RMK A01 T00101011  RH  086%=      5-min Rain = 0
KSP2 150010Z 18012G17KT 01/M01 A3015 RMK A01 T00101011  RH  086%=      5-min Rain = 0
KSP2 150011Z 18014KT 01/M01 A3015 RMK A01 T00101011  RH  086%=      5-min Rain = 0
KSP2 150012Z 18016KT 01/M01 A3015 RMK A01 T00101012  RH  086%=      5-min Rain = 0
KSP2 150013Z 18016KT 01/M01 A3015 RMK A01 T00081013  RH  086%=      5-min Rain = 0
KSP2 150014Z 18012KT 01/M01 A3015 RMK A01 T00081013  RH  086%=      5-min Rain = 0
KSP2 150015Z 20014KT 01/M01 A3015 RMK A01 T00071013  RH  086%=      5-min Rain = 0
KSP2 150016Z 20016KT 01/M01 A3014 RMK A01 T00071013  RH  087%=      5-min Rain = 0
KSP2 150017Z 20015KT 01/M01 A3015 RMK A01 T00061014  RH  087%=      5-min Rain = 0
KSP2 150018Z 20013KT 01/M01 A3015 RMK A01 T00061014  RH  087%=      5-min Rain = 0
KSP2 150019Z 20011KT 01/M01 A3015 RMK A01 T00051014  RH  087%=      5-min Rain = 0
KSP2 150020Z 19012KT 00/M02 A3015 RMK A01 T00041015  RH  087%=      5-min Rain = 0
KSP2 150021Z 19013KT 00/M02 A3015 RMK A01 T00031015  RH  087%=      5-min Rain = 0
KSP2 150022Z 19011KT 00/M02 A3015 RMK A01 T00031015  RH  088%=      5-min Rain = 0
KSP2 150023Z 19012KT 00/M02 A3015 RMK A01 T00021015  RH  088%=      5-min Rain = 0
KSP2 150024Z 19011KT 00/M02 A3015 RMK A01 T00021015  RH  088%=      5-min Rain = 0
KSP2 150025Z 19010KT 00/M02 A3014 RMK A01 T00011016  RH  088%=      5-min Rain = 0
KSP2 150026Z 19008KT 00/M02 A3015 RMK A01 T00011016  RH  089%=      5-min Rain = 0
KSP2 150027Z 18009KT 00/02 A3015 RMK A01 T00000-16  RH  089%=      5-min Rain = 0
KSP2 150028Z 19009KT 00/02 A3015 RMK A01 T00-00-16  RH  089%=      5-min Rain = 0
KSP2 150029Z 19008KT 00/02 A3015 RMK A01 T00-00-16  RH  089%=      5-min Rain = 0
KSP2 150030Z 19010KT M00/M02 A3015 RMK A01 T10011017  RH  089%=      5-min Rain = 0
KSP2 150031Z 19010KT M00/M02 A3014 RMK A01 T10011016  RH  090%=      5-min Rain = 0
KSP2 150032Z 19009KT M00/M02 A3014 RMK A01 T10011016  RH  090%=      5-min Rain = 0
KSP2 150033Z 19008KT M00/M02 A3014 RMK A01 T10021017  RH  089%=      5-min Rain = 0
KSP2 150034Z 20009KT M00/M02 A3014 RMK A01 T10021017  RH  090%=      5-min Rain = 0
KSP2 150035Z 20009KT M00/M02 A3014 RMK A01 T10031018  RH  090%=      5-min Rain = 0
KSP2 150036Z 20009KT M00/M02 A3015 RMK A01 T10031018  RH  090%=      5-min Rain = 0
KSP2 150037Z 19008KT M00/M02 A3015 RMK A01 T10031018  RH  090%=      5-min Rain = 0
KSP2 150038Z 19008KT M00/M02 A3015 RMK A01 T10031018  RH  090%=      5-min Rain = 0
KSP2 150039Z 20009KT M00/M02 A3015 RMK A01 T10041018  RH  090%=      5-min Rain = 0
KSP2 150040Z 19008KT M00/M02 A3015 RMK A01 T10041017  RH  090%=      5-min Rain = 0
KSP2 150041Z 20008KT M00/M02 A3015 RMK A01 T10041017  RH  091%=      5-min Rain = 0
KSP2 150042Z 21008KT M00/M02 A3014 RMK A01 T10041017  RH  091%=      5-min Rain = 0
KSP2 150043Z 21008KT M00/M02 A3014 RMK A01 T10041018  RH  091%=      5-min Rain = 0
KSP2 150044Z 21009KT M00/M02 A3014 RMK A01 T10041018  RH  091%=      5-min Rain = 0
KSP2 150045Z 21008KT M00/M02 A3014 RMK A01 T10041018  RH  091%=      5-min Rain = 0
KSP2 150046Z 20008KT M01/M02 A3015 RMK A01 T10051018  RH  091%=      5-min Rain = 0
KSP2 150047Z 20007KT M01/M02 A3015 RMK A01 T10051018  RH  091%=      5-min Rain = 0
KSP2 150048Z 20008KT M01/M02 A3015 RMK A01 T10051018  RH  091%=      5-min Rain = 0
KSP2 150049Z 20007KT M01/M02 A3015 RMK A01 T10051019  RH  091%=      5-min Rain = 0
KSP2 150050Z 20009KT M01/M02 A3015 RMK A01 T10061019  RH  091%=      5-min Rain = 0
KSP2 150051Z 21009KT M01/M02 A3015 RMK A01 T10051018  RH  091%=      5-min Rain = 0
KSP2 150052Z 21010KT M01/M02 A3015 RMK A01 T10061018  RH  091%=      5-min Rain = 0
KSP2 150053Z 21009KT M01/M02 A3015 RMK A01 T10051017  RH  092%=      5-min Rain = 0
KSP2 150054Z 21008KT M01/M02 A3015 RMK A01 T10051017  RH  092%=      5-min Rain = 0
KSP2 150055Z 21008KT M01/M02 A3015 RMK A01 T10051017  RH  092%=      5-min Rain = 0
KSP2 150056Z 21008KT M01/M02 A3015 RMK A01 T10051017  RH  091%=      5-min Rain = 0
KSP2 150057Z 22008KT M01/M02 A3015 RMK A01 T10051017  RH  091%=      5-min Rain = 0
KSP2 150058Z 21008KT M01/M02 A3014 RMK A01 T10051017  RH  092%=      5-min Rain = 0
KSP2 150059Z 21008KT M01/M02 A3015 RMK A01 T10051017  RH  092%=      5-min Rain = 0
KSP2 150100Z 22009KT M01/M02 A3015 RMK A01 T10051017  RH  092%=      5-min Rain = 0
KSP2 150101Z 21009KT M01/M02 A3014 RMK A01 T10051017  RH  092%=      5-min Rain = 0
KSP2 150102Z 21008KT M01/M02 A3014 RMK A01 T10051017  RH  092%=      5-min Rain = 0
KSP2 150103Z 21009KT M01/M02 A3014 RMK A01 T10051017  RH  092%=      5-min Rain = 0
KSP2 150104Z 20009KT M01/M02 A3014 RMK A01 T10051017  RH  092%=      5-min Rain = 0
KSP2 150105Z 21008KT M01/M02 A3014 RMK A01 T10051017  RH  092%=      5-min Rain = 0
KSP2 150106Z 21008KT M01/M02 A3014 RMK A01 T10051017  RH  092%=      5-min Rain = 0
KSP2 150107Z 21009KT M01/M02 A3014 RMK A01 T10051016  RH  092%=      5-min Rain = 0
KSP2 150108Z 21009KT M01/M02 A3014 RMK A01 T10051016  RH  092%=      5-min Rain = 0
KSP2 150109Z 21008KT M00/M02 A3014 RMK A01 T10041016  RH  092%=      5-min Rain = 0
KSP2 150110Z 21008KT M01/M02 A3014 RMK A01 T10051017  RH  092%=      5-min Rain = 0
KSP2 150111Z 21008KT M01/M02 A3014 RMK A01 T10051017  RH  092%=      5-min Rain = 0
KSP2 150112Z 21008KT M01/M02 A3014 RMK A01 T10051017  RH  092%=      5-min Rain = 0
KSP2 150113Z 20009KT M01/M02 A3014 RMK A01 T10051017  RH  092%=      5-min Rain = 0
KSP2 150114Z 21009KT M01/M02 A3014 RMK A01 T10061017  RH  092%=      5-min Rain = 0
KSP2 150115Z 21009KT M01/M02 A3014 RMK A01 T10061017  RH  092%=      5-min Rain = 0
KSP2 150116Z 21008KT M01/M02 A3014 RMK A01 T10061016  RH  092%=      5-min Rain = 0
KSP2 150117Z 22009KT M01/M02 A3014 RMK A01 T10061016  RH  092%=      5-min Rain = 0
KSP2 150118Z 21010KT M01/M02 A3014 RMK A01 T10061016  RH  092%=      5-min Rain = 0
KSP2 150119Z 22010KT M01/M02 A3014 RMK A01 T10061016  RH  092%=      5-min Rain = 0
KSP2 150120Z 21009KT M01/M02 A3014 RMK A01 T10051016  RH  092%=      5-min Rain = 0
KSP2 150121Z 21009KT M01/M02 A3014 RMK A01 T10051016  RH  092%=      5-min Rain = 0
KSP2 150122Z 21009KT M01/M02 A3014 RMK A01 T10051016  RH  092%=      5-min Rain = 0
KSP2 150123Z 22009KT M01/M02 A3014 RMK A01 T10051016  RH  092%=      5-min Rain = 0
KSP2 150124Z 22009KT M01/M02 A3014 RMK A01 T10051016  RH  093%=      5-min Rain = 0
KSP2 150125Z 21009KT M01/M02 A3014 RMK A01 T10051015  RH  093%=      5-min Rain = 0
KSP2 150126Z 21008KT M01/M02 A3014 RMK A01 T10051015  RH  092%=      5-min Rain = 0
KSP2 150127Z 22010KT M01/M02 A3014 RMK A01 T10051016  RH  092%=      5-min Rain = 0
KSP2 150128Z 21008KT M01/M02 A3014 RMK A01 T10051015  RH  093%=      5-min Rain = 0
KSP2 150129Z 21009KT M01/M02 A3014 RMK A01 T10051015  RH  093%=      5-min Rain = 0
KSP2 150130Z 21009KT M01/M02 A3014 RMK A01 T10051015  RH  093%=      5-min Rain = 0
KSP2 150131Z 21008KT M01/M02 A3014 RMK A01 T10051015  RH  093%=      5-min Rain = 0
KSP2 150132Z 22008KT M01/M02 A3014 RMK A01 T10051015  RH  093%=      5-min Rain = 0
KSP2 150133Z 21009KT M01/M02 A3014 RMK A01 T10051015  RH  093%=      5-min Rain = 0
KSP2 150134Z 21009KT M01/M01 A3014 RMK A01 T10051014  RH  093%=      5-min Rain = 0
KSP2 150135Z 21008KT M00/M01 A3014 RMK A01 T10041014  RH  093%=      5-min Rain = 0
KSP2 150136Z 21009KT M00/M01 A3014 RMK A01 T10041013  RH  094%=      5-min Rain = 0
KSP2 150137Z 21010KT M00/M01 A3014 RMK A01 T10041013  RH  094%=      5-min Rain = 0
KSP2 150138Z 21010KT M00/M01 A3014 RMK A01 T10041012  RH  094%=      5-min Rain = 0
KSP2 150139Z 21010KT M00/M01 A3014 RMK A01 T10031012  RH  094%=      5-min Rain = 0
KSP2 150140Z 21010KT M00/M01 A3014 RMK A01 T10031012  RH  094%=      5-min Rain = 0
KSP2 150141Z 21008KT M00/M01 A3014 RMK A01 T10031012  RH  094%=      5-min Rain = 0
KSP2 150142Z 21010KT M00/M01 A3014 RMK A01 T10031012  RH  094%=      5-min Rain = 0
KSP2 150143Z 21008KT M00/M01 A3014 RMK A01 T10031012  RH  094%=      5-min Rain = 0
KSP2 150144Z 22009KT M00/M01 A3014 RMK A01 T10031012  RH  094%=      5-min Rain = 0
KSP2 150145Z 22009KT M00/M01 A3014 RMK A01 T10031011  RH  094%=      5-min Rain = 0
KSP2 150146Z 22010KT M00/M01 A3014 RMK A01 T10031011  RH  094%=      5-min Rain = 0
KSP2 150147Z 21009KT M00/M01 A3014 RMK A01 T10021011  RH  094%=      5-min Rain = 0
KSP2 150148Z 21008KT M00/M01 A3014 RMK A01 T10021011  RH  094%=      5-min Rain = 0
KSP2 150149Z 22010KT M00/M01 A3014 RMK A01 T10021011  RH  094%=      5-min Rain = 0
KSP2 150150Z 22009KT M00/M01 A3014 RMK A01 T10021010  RH  094%=      5-min Rain = 0
KSP2 150151Z 22009KT M00/M01 A3014 RMK A01 T10011010  RH  094%=      5-min Rain = 0
KSP2 150152Z 22010KT M00/M01 A3014 RMK A01 T10011010  RH  094%=      5-min Rain = 0
KSP2 150153Z 22010KT M00/M01 A3014 RMK A01 T10011009  RH  094%=      5-min Rain = 0
KSP2 150154Z 22009KT M00/M01 A3014 RMK A01 T10011009  RH  094%=      5-min Rain = 0
KSP2 150155Z 22008KT M00/M01 A3014 RMK A01 T10011010  RH  094%=      5-min Rain = 0
KSP2 150156Z 22007KT M00/M01 A3014 RMK A01 T10011010  RH  094%=      5-min Rain = 0
KSP2 150157Z 22008KT M00/M01 A3014 RMK A01 T10011010  RH  094%=      5-min Rain = 0
KSP2 150158Z 22010KT M00/M01 A3014 RMK A01 T10011009  RH  094%=      5-min Rain = 0
KSP2 150159Z 21012KT M00/M01 A3014 RMK A01 T10011009  RH  094%=      5-min Rain = 0
KSP2 150200Z 21010G15KT 00/01 A3014 RMK A01 T000000-8  RH  094%=      5-min Rain = 0
KSP2 150201Z 22011KT 00/01 A3014 RMK A01 T000000-8  RH  094%=      5-min Rain = 0
KSP2 150202Z 21011KT 00/01 A3014 RMK A01 T000000-8  RH  094%=      5-min Rain = 0
KSP2 150203Z 22009KT 00/01 A3014 RMK A01 T000000-8  RH  094%=      5-min Rain = 0
KSP2 150204Z 22011KT 00/01 A3014 RMK A01 T000000-8  RH  094%=      5-min Rain = 0
KSP2 150205Z 22011KT 00/01 A3014 RMK A01 T000000-8  RH  094%=      5-min Rain = 0
KSP2 150206Z 22010KT 00/01 A3014 RMK A01 T000000-8  RH  094%=      5-min Rain = 0
KSP2 150207Z 22009KT 00/M01 A3014 RMK A01 T00011007  RH  094%=      5-min Rain = 0
KSP2 150208Z 22010KT 00/M01 A3014 RMK A01 T00011008  RH  094%=      5-min Rain = 0
KSP2 150209Z 21010KT 00/01 A3014 RMK A01 T000000-8  RH  094%=      5-min Rain = 0
KSP2 150210Z 21010KT 00/01 A3014 RMK A01 T000000-8  RH  094%=      5-min Rain = 0
KSP2 150211Z 21010KT 00/01 A3014 RMK A01 T000000-8  RH  094%=      5-min Rain = 0
KSP2 150212Z 21011KT 00/M01 A3013 RMK A01 T00011007  RH  094%=      5-min Rain = 0
KSP2 150213Z 21010KT 00/M01 A3013 RMK A01 T00011007  RH  095%=      5-min Rain = 0
KSP2 150214Z 21011KT 00/M01 A3013 RMK A01 T00011007  RH  094%=      5-min Rain = 0
KSP2 150215Z 21012KT 00/M01 A3013 RMK A01 T00011007  RH  094%=      5-min Rain = 0
KSP2 150216Z 21010KT 00/M01 A3013 RMK A01 T00021006  RH  095%=      5-min Rain = 0
KSP2 150217Z 22011KT 00/M01 A3013 RMK A01 T00021006  RH  094%=      5-min Rain = 0
KSP2 150218Z 21011KT 00/M01 A3013 RMK A01 T00021006  RH  094%=      5-min Rain = 0
KSP2 150219Z 21010KT 00/M01 A3013 RMK A01 T00021006  RH  094%=      5-min Rain = 0
KSP2 150220Z 22010KT 00/M01 A3013 RMK A01 T00021006  RH  094%=      5-min Rain = 0
KSP2 150221Z 21010KT 00/M01 A3013 RMK A01 T00021006  RH  094%=      5-min Rain = 0
KSP2 150222Z 22009KT 00/M01 A3013 RMK A01 T00021006  RH  094%=      5-min Rain = 0
KSP2 150223Z 22010KT 00/M01 A3013 RMK A01 T00021006  RH  094%=      5-min Rain = 0
KSP2 150224Z 22009KT 00/M01 A3013 RMK A01 T00021006  RH  094%=      5-min Rain = 0
KSP2 150225Z 22011KT 00/M01 A3013 RMK A01 T00021006  RH  095%=      5-min Rain = 0
KSP2 150226Z 22010KT 00/M01 A3013 RMK A01 T00021005  RH  095%=      5-min Rain = 0
KSP2 150227Z 22010KT 00/M01 A3013 RMK A01 T00031005  RH  095%=      5-min Rain = 0
KSP2 150228Z 22011KT 00/M01 A3013 RMK A01 T00031005  RH  095%=      5-min Rain = 0
KSP2 150229Z 22010KT 00/M00 A3013 RMK A01 T00041004  RH  094%=      5-min Rain = 0
KSP2 150230Z 22011KT 00/M01 A3013 RMK A01 T00041005  RH  094%=      5-min Rain = 0
KSP2 150231Z 22010KT 00/M01 A3013 RMK A01 T00041005  RH  094%=      5-min Rain = 0
KSP2 150232Z 22010KT 01/M00 A3014 RMK A01 T00051004  RH  094%=      5-min Rain = 0
KSP2 150233Z 22008KT 01/M00 A3014 RMK A01 T00051004  RH  094%=      5-min Rain = 0
KSP2 150234Z 22008KT 01/M01 A3013 RMK A01 T00051005  RH  094%=      5-min Rain = 0
KSP2 150235Z 23008KT 00/M01 A3013 RMK A01 T00041005  RH  093%=      5-min Rain = 0
KSP2 150236Z 22009KT 00/M01 A3013 RMK A01 T00041005  RH  094%=      5-min Rain = 0
KSP2 150237Z 22011KT 00/M01 A3013 RMK A01 T00041005  RH  094%=      5-min Rain = 0
KSP2 150238Z 22010KT 00/M00 A3013 RMK A01 T00041004  RH  094%=      5-min Rain = 0
KSP2 150239Z 22010KT 01/M00 A3013 RMK A01 T00051004  RH  094%=      5-min Rain = 0
KSP2 150240Z 22009KT 00/M00 A3013 RMK A01 T00041004  RH  094%=      5-min Rain = 0
KSP2 150241Z 22009KT 00/M00 A3013 RMK A01 T00041004  RH  094%=      5-min Rain = 0
KSP2 150242Z 22010KT 01/M00 A3013 RMK A01 T00051004  RH  094%=      5-min Rain = 0
KSP2 150243Z 22009KT 00/M00 A3013 RMK A01 T00041004  RH  094%=      5-min Rain = 0
KSP2 150244Z 22009KT 01/M00 A3013 RMK A01 T00051004  RH  094%=      5-min Rain = 0
KSP2 150245Z 22009KT 00/M00 A3013 RMK A01 T00041004  RH  094%=      5-min Rain = 0
KSP2 150246Z 22009KT 01/M00 A3013 RMK A01 T00051004  RH  094%=      5-min Rain = 0
KSP2 150247Z 22009KT 01/M00 A3013 RMK A01 T00051004  RH  094%=      5-min Rain = 0
KSP2 150248Z 22009KT 01/M00 A3013 RMK A01 T00051004  RH  094%=      5-min Rain = 0
KSP2 150249Z 22009KT 01/M00 A3013 RMK A01 T00051004  RH  094%=      5-min Rain = 0
KSP2 150250Z 22009KT 01/M00 A3013 RMK A01 T00051004  RH  093%=      5-min Rain = 0
KSP2 150251Z 22009KT 01/M00 A3013 RMK A01 T00061004  RH  093%=      5-min Rain = 0
KSP2 150252Z 22008KT 01/M00 A3013 RMK A01 T00051004  RH  093%=      5-min Rain = 0
KSP2 150253Z 22010KT 01/M00 A3013 RMK A01 T00061004  RH  093%=      5-min Rain = 0
KSP2 150254Z 22010KT 01/M00 A3013 RMK A01 T00051004  RH  094%=      5-min Rain = 0
KSP2 150255Z 21010KT 01/M00 A3013 RMK A01 T00051004  RH  093%=      5-min Rain = 0
KSP2 150256Z 21010KT 01/M00 A3013 RMK A01 T00051004  RH  094%=      5-min Rain = 0
KSP2 150257Z 22010KT 01/M00 A3012 RMK A01 T00061003  RH  094%=      5-min Rain = 0
KSP2 150258Z 21010KT 01/M00 A3012 RMK A01 T00061004  RH  093%=      5-min Rain = 0
KSP2 150259Z 21010KT 01/M00 A3012 RMK A01 T00061004  RH  093%=      5-min Rain = 0
KSP2 150300Z 21009KT 01/M00 A3012 RMK A01 T00061004  RH  093%=      5-min Rain = 0
KSP2 150301Z 21010KT 01/M00 A3012 RMK A01 T00061004  RH  093%=      5-min Rain = 0
KSP2 150302Z 21009KT 01/M00 A3012 RMK A01 T00061004  RH  093%=      5-min Rain = 0
KSP2 150303Z 21010KT 01/M00 A3012 RMK A01 T00061004  RH  093%=      5-min Rain = 0
KSP2 150304Z 21010KT 01/M00 A3012 RMK A01 T00061004  RH  093%=      5-min Rain = 0
KSP2 150305Z 21010KT 01/M00 A3012 RMK A01 T00061004  RH  093%=      5-min Rain = 0
KSP2 150306Z 21010KT 01/M00 A3012 RMK A01 T00061004  RH  093%=      5-min Rain = 0
KSP2 150307Z 21009KT 01/M00 A3012 RMK A01 T00061004  RH  093%=      5-min Rain = 0
KSP2 150308Z 22009KT 01/M00 A3012 RMK A01 T00061004  RH  093%=      5-min Rain = 0
KSP2 150309Z 21009KT 01/M01 A3012 RMK A01 T00061005  RH  093%=      5-min Rain = 0
KSP2 150310Z 21009KT 01/M01 A3012 RMK A01 T00051005  RH  093%=      5-min Rain = 0
KSP2 150311Z 21011KT 01/M01 A3012 RMK A01 T00051005  RH  093%=      5-min Rain = 0
KSP2 150312Z 21009KT 01/M00 A3012 RMK A01 T00051004  RH  093%=      5-min Rain = 0
KSP2 150313Z 21009KT 01/M00 A3012 RMK A01 T00051004  RH  093%=      5-min Rain = 0
KSP2 150314Z 21010KT 01/M00 A3012 RMK A01 T00051004  RH  093%=      5-min Rain = 0
KSP2 150315Z 22009KT 01/M00 A3012 RMK A01 T00051004  RH  093%=      5-min Rain = 0
KSP2 150316Z 21010KT 01/M00 A3012 RMK A01 T00051004  RH  093%=      5-min Rain = 0
KSP2 150317Z 22009KT 01/M00 A3012 RMK A01 T00051004  RH  093%=      5-min Rain = 0
KSP2 150318Z 21010KT 01/M00 A3012 RMK A01 T00051004  RH  093%=      5-min Rain = 0
KSP2 150319Z 22009KT 01/M00 A3012 RMK A01 T00051004  RH  093%=      5-min Rain = 0
KSP2 150320Z 21010KT 01/M00 A3012 RMK A01 T00051004  RH  093%=      5-min Rain = 0
KSP2 150321Z 21009KT 01/M00 A3012 RMK A01 T00051004  RH  093%=      5-min Rain = 0
KSP2 150322Z 21010KT 01/M01 A3012 RMK A01 T00051005  RH  093%=      5-min Rain = 0
KSP2 150323Z 21010KT 01/M01 A3012 RMK A01 T00051005  RH  093%=      5-min Rain = 0
KSP2 150324Z 21010KT 01/M01 A3012 RMK A01 T00051005  RH  093%=      5-min Rain = 0
KSP2 150325Z 21010KT 01/M01 A3012 RMK A01 T00051005  RH  093%=      5-min Rain = 0
KSP2 150326Z 21011KT 01/M00 A3012 RMK A01 T00051004  RH  094%=      5-min Rain = 0
KSP2 150327Z 21009KT 01/M00 A3011 RMK A01 T00051004  RH  093%=      5-min Rain = 0
KSP2 150328Z 20010KT 01/M01 A3011 RMK A01 T00051005  RH  093%=      5-min Rain = 0
KSP2 150329Z 20010KT 01/M01 A3011 RMK A01 T00051005  RH  093%=      5-min Rain = 0
KSP2 150330Z 20011KT 01/M00 A3011 RMK A01 T00051004  RH  093%=      5-min Rain = 0
KSP2 150331Z 20010KT 01/M01 A3011 RMK A01 T00051005  RH  093%=      5-min Rain = 0
KSP2 150332Z 20010KT 01/M01 A3011 RMK A01 T00051005  RH  093%=      5-min Rain = 0
KSP2 150333Z 20010KT 01/M01 A3011 RMK A01 T00051005  RH  093%=      5-min Rain = 0
KSP2 150334Z 20009KT 01/M01 A3011 RMK A01 T00051005  RH  093%=      5-min Rain = 0
KSP2 150335Z 20010KT 01/M01 A3011 RMK A01 T00051005  RH  093%=      5-min Rain = 0
KSP2 150336Z 20010KT 01/M01 A3011 RMK A01 T00051005  RH  093%=      5-min Rain = 0
KSP2 150337Z 20010KT 01/M00 A3011 RMK A01 T00061004  RH  093%=      5-min Rain = 0
KSP2 150338Z 20010KT 01/M00 A3011 RMK A01 T00051004  RH  093%=      5-min Rain = 0
KSP2 150339Z 20011KT 01/M00 A3011 RMK A01 T00061003  RH  093%=      5-min Rain = 0
KSP2 150340Z 20009KT 01/M00 A3011 RMK A01 T00081002  RH  093%=      5-min Rain = 0
KSP2 150341Z 20010KT 01/M00 A3011 RMK A01 T00081002  RH  093%=      5-min Rain = 0
KSP2 150342Z 20011KT 01/M00 A3011 RMK A01 T00091002  RH  093%=      5-min Rain = 0
KSP2 150343Z 20010KT 01/M00 A3011 RMK A01 T00091002  RH  092%=      5-min Rain = 0
KSP2 150344Z 20010KT 01/M00 A3011 RMK A01 T00101001  RH  092%=      5-min Rain = 0
KSP2 150345Z 20010KT 01/M00 A3011 RMK A01 T00111001  RH  092%=      5-min Rain = 0
KSP2 150346Z 20010KT 01/M00 A3011 RMK A01 T00111001  RH  092%=      5-min Rain = 0
KSP2 150347Z 20010KT 01/M00 A3011 RMK A01 T00111001  RH  092%=      5-min Rain = 0
KSP2 150348Z 20011KT 01/M00 A3011 RMK A01 T00111001  RH  092%=      5-min Rain = 0
KSP2 150349Z 20010KT 01/00 A3011 RMK A01 T001200-0  RH  091%=      5-min Rain = 0
KSP2 150350Z 20009KT 01/00 A3011 RMK A01 T001200-0  RH  091%=      5-min Rain = 0
KSP2 150351Z 20011KT 01/00 A3011 RMK A01 T001200-0  RH  091%=      5-min Rain = 0
KSP2 150352Z 20012KT 01/00 A3011 RMK A01 T00130000  RH  091%=      5-min Rain = 0
KSP2 150353Z 21010KT 01/00 A3011 RMK A01 T00140001  RH  091%=      5-min Rain = 0
KSP2 150354Z 21010KT 02/00 A3011 RMK A01 T00150001  RH  091%=      5-min Rain = 0
KSP2 150355Z 21010KT 02/00 A3011 RMK A01 T00150000  RH  090%=      5-min Rain = 0
KSP2 150356Z 21011KT 01/00 A3011 RMK A01 T00140000  RH  090%=      5-min Rain = 0
KSP2 150357Z 21010KT 02/00 A3011 RMK A01 T00150000  RH  090%=      5-min Rain = 0
KSP2 150358Z 21010KT 02/00 A3011 RMK A01 T00150001  RH  090%=      5-min Rain = 0
KSP2 150359Z 21010KT 02/00 A3011 RMK A01 T00150000  RH  090%=      5-min Rain = 0
KSP2 150400Z 21010KT 02/00 A3011 RMK A01 T00150000  RH  090%=      5-min Rain = 0
KSP2 150401Z 21010KT 02/00 A3011 RMK A01 T001500-0  RH  090%=      5-min Rain = 0
KSP2 150402Z 22009KT 02/00 A3011 RMK A01 T00150000  RH  090%=      5-min Rain = 0
KSP2 150403Z 22009KT 02/00 A3011 RMK A01 T001500-0  RH  090%=      5-min Rain = 0
KSP2 150404Z 22009KT 01/00 A3011 RMK A01 T001400-0  RH  090%=      5-min Rain = 0
KSP2 150405Z 22009KT 01/00 A3011 RMK A01 T00140000  RH  090%=      5-min Rain = 0
KSP2 150406Z 22009G14KT 02/00 A3011 RMK A01 T00150000  RH  090%=      5-min Rain = 0
KSP2 150407Z 22008KT 02/00 A3011 RMK A01 T00150000  RH  090%=      5-min Rain = 0
KSP2 150408Z 21009KT 02/00 A3011 RMK A01 T00150000  RH  090%=      5-min Rain = 0
KSP2 150409Z 22008KT 02/00 A3011 RMK A01 T00150000  RH  090%=      5-min Rain = 0
KSP2 150410Z 22008KT 02/00 A3011 RMK A01 T00150000  RH  090%=      5-min Rain = 0
KSP2 150411Z 22008KT 02/00 A3011 RMK A01 T00160000  RH  089%=      5-min Rain = 0
KSP2 150412Z 22008KT 02/00 A3011 RMK A01 T00160000  RH  089%=      5-min Rain = 0
KSP2 150413Z 22007KT 02/00 A3011 RMK A01 T001500-0  RH  089%=      5-min Rain = 0
KSP2 150414Z 22009KT 02/M00 A3011 RMK A01 T00151001  RH  089%=      5-min Rain = 0
KSP2 150415Z 22008KT 02/00 A3011 RMK A01 T001500-0  RH  089%=      5-min Rain = 0
KSP2 150416Z 22007KT 02/M00 A3011 RMK A01 T00151001  RH  090%=      5-min Rain = 0
KSP2 150417Z 22008KT 02/00 A3011 RMK A01 T001500-0  RH  090%=      5-min Rain = 0
KSP2 150418Z 22007KT 02/00 A3011 RMK A01 T001500-0  RH  089%=      5-min Rain = 0
KSP2 150419Z 22008KT 02/M00 A3011 RMK A01 T00151001  RH  089%=      5-min Rain = 0
KSP2 150420Z 22009KT 02/00 A3011 RMK A01 T001500-0  RH  089%=      5-min Rain = 0
KSP2 150421Z 22007KT 02/00 A3011 RMK A01 T001500-0  RH  090%=      5-min Rain = 0
KSP2 150422Z 22007KT 02/M00 A3011 RMK A01 T00151001  RH  089%=      5-min Rain = 0
KSP2 150423Z 22008KT 02/M00 A3011 RMK A01 T00151001  RH  089%=      5-min Rain = 0
KSP2 150424Z 21009KT 02/M00 A3011 RMK A01 T00151001  RH  090%=      5-min Rain = 0
KSP2 150425Z 22009KT 02/00 A3011 RMK A01 T00150000  RH  090%=      5-min Rain = 0
KSP2 150426Z 22010KT 02/00 A3011 RMK A01 T001500-0  RH  089%=      5-min Rain = 0
KSP2 150427Z 22008KT 02/00 A3011 RMK A01 T00160000  RH  089%=      5-min Rain = 0
KSP2 150428Z 22008KT 02/00 A3011 RMK A01 T00160000  RH  089%=      5-min Rain = 0
KSP2 150429Z 23008KT 02/00 A3011 RMK A01 T001600-0  RH  089%=      5-min Rain = 0
KSP2 150430Z 23008KT 02/00 A3011 RMK A01 T001600-0  RH  089%=      5-min Rain = 0
KSP2 150431Z 23008KT 02/M00 A3011 RMK A01 T00151001  RH  089%=      5-min Rain = 0
KSP2 150432Z 23007KT 02/00 A3011 RMK A01 T001600-0  RH  089%=      5-min Rain = 0
KSP2 150433Z 24008KT 02/M00 A3011 RMK A01 T00151001  RH  089%=      5-min Rain = 0
KSP2 150434Z 24007KT 02/M00 A3011 RMK A01 T00151001  RH  089%=      5-min Rain = 0
KSP2 150435Z 24008KT 02/M00 A3011 RMK A01 T00151001  RH  089%=      5-min Rain = 0
KSP2 150436Z 24008KT 02/M00 A3011 RMK A01 T00151001  RH  089%=      5-min Rain = 0
KSP2 150437Z 24009KT 02/M00 A3011 RMK A01 T00151001  RH  089%=      5-min Rain = 0
KSP2 150438Z 24008KT 02/M00 A3011 RMK A01 T00151001  RH  089%=      5-min Rain = 0
KSP2 150439Z 23007KT 02/M00 A3011 RMK A01 T00161001  RH  089%=      5-min Rain = 0
KSP2 150440Z 24007KT 02/M00 A3011 RMK A01 T00151001  RH  089%=      5-min Rain = 0
KSP2 150441Z 24007KT 02/M00 A3011 RMK A01 T00151001  RH  089%=      5-min Rain = 0
KSP2 150442Z 23007KT 02/M00 A3011 RMK A01 T00151002  RH  089%=      5-min Rain = 0
KSP2 150443Z 23007KT 02/M00 A3011 RMK A01 T00151001  RH  089%=      5-min Rain = 0
KSP2 150444Z 23007KT 01/M00 A3011 RMK A01 T00141002  RH  089%=      5-min Rain = 0
KSP2 150445Z 23008KT 02/M00 A3011 RMK A01 T00151001  RH  089%=      5-min Rain = 0
KSP2 150446Z 23007KT 02/M00 A3011 RMK A01 T00151001  RH  089%=      5-min Rain = 0
KSP2 150447Z 22008KT 02/M00 A3011 RMK A01 T00151001  RH  089%=      5-min Rain = 0
KSP2 150448Z 22008KT 02/M00 A3011 RMK A01 T00151001  RH  089%=      5-min Rain = 0
KSP2 150449Z 22008KT 02/M00 A3011 RMK A01 T00151001  RH  089%=      5-min Rain = 0
KSP2 150450Z 22009KT 02/M00 A3011 RMK A01 T00151001  RH  089%=      5-min Rain = 0
KSP2 150451Z 22009KT 02/M00 A3011 RMK A01 T00151001  RH  089%=      5-min Rain = 0
KSP2 150452Z 22008KT 02/M00 A3011 RMK A01 T00151001  RH  089%=      5-min Rain = 0
KSP2 150453Z 22008KT 02/M00 A3011 RMK A01 T00151001  RH  089%=      5-min Rain = 0
KSP2 150454Z 21010KT 02/M00 A301 RMK A01 T00151001  RH  089%=      5-min Rain = 0
KSP2 150455Z 22009KT 02/M00 A301 RMK A01 T00151001  RH  089%=      5-min Rain = 0
KSP2 150456Z 21008KT 02/M00 A301 RMK A01 T00161001  RH  089%=      5-min Rain = 0
KSP2 150457Z 21009KT 02/M00 A301 RMK A01 T00151001  RH  089%=      5-min Rain = 0
KSP2 150458Z 21009KT 02/M00 A301 RMK A01 T00151001  RH  089%=      5-min Rain = 0
KSP2 150459Z 22009KT 02/M00 A301 RMK A01 T00151001  RH  089%=      5-min Rain = 0
KSP2 150500Z 21010KT 02/00 A301 RMK A01 T001500-0  RH  089%=      5-min Rain = 0
KSP2 150501Z 21009KT 02/00 A301 RMK A01 T001600-0  RH  089%=      5-min Rain = 0
KSP2 150502Z 21010KT 02/00 A301 RMK A01 T001600-0  RH  089%=      5-min Rain = 0
KSP2 150503Z 21010KT 02/00 A301 RMK A01 T00160000  RH  089%=      5-min Rain = 0
KSP2 150504Z 21010G15KT 02/00 A301 RMK A01 T00170000  RH  089%=      5-min Rain = 0
KSP2 150505Z 21010KT 02/00 A301 RMK A01 T00170000  RH  089%=      5-min Rain = 0
KSP2 150506Z 21011KT 02/00 A301 RMK A01 T00180001  RH  088%=      5-min Rain = 0
KSP2 150507Z 21012KT 02/00 A301 RMK A01 T00180000  RH  088%=      5-min Rain = 0
KSP2 150508Z 21011KT 02/00 A301 RMK A01 T00180001  RH  088%=      5-min Rain = 0
KSP2 150509Z 20012KT 02/00 A301 RMK A01 T00180001  RH  088%=      5-min Rain = 0
KSP2 150510Z 20012KT 02/00 A301 RMK A01 T00190001  RH  088%=      5-min Rain = 0
KSP2 150511Z 21011KT 02/00 A301 RMK A01 T00190001  RH  088%=      5-min Rain = 0
KSP2 150512Z 21012KT 02/00 A301 RMK A01 T00190001  RH  088%=      5-min Rain = 0
KSP2 150513Z 21013KT 02/00 A301 RMK A01 T00190001  RH  088%=      5-min Rain = 0
KSP2 150514Z 21013KT 02/00 A301 RMK A01 T00200002  RH  088%=      5-min Rain = 0
KSP2 150515Z 21012G17KT 02/00 A3009 RMK A01 T00210002  RH  088%=      5-min Rain = 0
KSP2 150516Z 20013KT 02/00 A3009 RMK A01 T00210002  RH  087%=      5-min Rain = 0
KSP2 150517Z 20013KT 02/00 A3009 RMK A01 T00210002  RH  087%=      5-min Rain = 0
KSP2 150518Z 20013KT 02/00 A3009 RMK A01 T00210002  RH  087%=      5-min Rain = 0
KSP2 150519Z 21011KT 02/00 A301 RMK A01 T00220002  RH  087%=      5-min Rain = 0
KSP2 150520Z 21012KT 02/00 A3009 RMK A01 T00220002  RH  087%=      5-min Rain = 0
KSP2 150521Z 20013KT 02/00 A3009 RMK A01 T00220002  RH  087%=      5-min Rain = 0
KSP2 150522Z 21012KT 02/00 A301 RMK A01 T00220002  RH  087%=      5-min Rain = 0
KSP2 150523Z 21013KT 02/00 A3009 RMK A01 T00220003  RH  087%=      5-min Rain = 0
KSP2 150524Z 21012KT 02/00 A3009 RMK A01 T00230003  RH  087%=      5-min Rain = 0
KSP2 150525Z 21010KT 02/00 A3009 RMK A01 T00230003  RH  087%=      5-min Rain = 0
KSP2 150526Z 21014KT 02/00 A3009 RMK A01 T00230003  RH  087%=      5-min Rain = 0
KSP2 150527Z 21011KT 02/00 A3009 RMK A01 T00230003  RH  086%=      5-min Rain = 0
KSP2 150528Z 20011KT 02/00 A3009 RMK A01 T00230003  RH  086%=      5-min Rain = 0
KSP2 150529Z 21011KT 02/00 A3009 RMK A01 T00230003  RH  086%=      5-min Rain = 0
KSP2 150530Z 21011KT 02/00 A3009 RMK A01 T00220002  RH  087%=      5-min Rain = 0
KSP2 150531Z 21010KT 02/00 A3009 RMK A01 T00220002  RH  087%=      5-min Rain = 0
KSP2 150532Z 21009G15KT 02/00 A3009 RMK A01 T00220002  RH  087%=      5-min Rain = 0
KSP2 150533Z 21011KT 02/00 A3009 RMK A01 T00210002  RH  087%=      5-min Rain = 0
KSP2 150534Z 21011KT 02/00 A3009 RMK A01 T00210001  RH  087%=      5-min Rain = 0
KSP2 150535Z 21012KT 02/00 A3009 RMK A01 T00210002  RH  088%=      5-min Rain = 0
KSP2 150536Z 21011KT 02/00 A3009 RMK A01 T00210003  RH  088%=      5-min Rain = 0
KSP2 150537Z 21012KT 02/00 A3009 RMK A01 T00210003  RH  088%=      5-min Rain = 0
KSP2 150538Z 21013KT 02/00 A3009 RMK A01 T00220003  RH  088%=      5-min Rain = 0
KSP2 150539Z 21012KT 02/00 A3009 RMK A01 T00220003  RH  087%=      5-min Rain = 0
KSP2 150540Z 21012KT 02/00 A3009 RMK A01 T00220003  RH  087%=      5-min Rain = 0
KSP2 150541Z 21013KT 02/00 A3009 RMK A01 T00220003  RH  087%=      5-min Rain = 0
KSP2 150542Z 21014KT 02/00 A3009 RMK A01 T00230003  RH  087%=      5-min Rain = 0
KSP2 150543Z 21013KT 02/00 A3009 RMK A01 T00220003  RH  087%=      5-min Rain = 0
KSP2 150544Z 20013KT 02/00 A3009 RMK A01 T00230003  RH  087%=      5-min Rain = 0
KSP2 150545Z 20012KT 02/00 A3008 RMK A01 T00230004  RH  087%=      5-min Rain = 0
KSP2 150546Z 20013KT 02/00 A3008 RMK A01 T00230004  RH  087%=      5-min Rain = 0
KSP2 150547Z 20015KT 02/00 A3008 RMK A01 T00230004  RH  087%=      5-min Rain = 0
KSP2 150548Z 20015KT 02/01 A3008 RMK A01 T00240005  RH  087%=      5-min Rain = 0
KSP2 150549Z 20016G21KT 03/01 A3008 RMK A01 T00250005  RH  087%=      5-min Rain = 0
KSP2 150550Z 20016KT 03/01 A3008 RMK A01 T00250006  RH  087%=      5-min Rain = 0
KSP2 150551Z 20015KT 03/01 A3008 RMK A01 T00260006  RH  087%=      5-min Rain = 0
KSP2 150552Z 20016G22KT 03/01 A3008 RMK A01 T00260006  RH  087%=      5-min Rain = 0
KSP2 150553Z 20016KT 03/01 A3008 RMK A01 T00270006  RH  086%=      5-min Rain = 0
KSP2 150554Z 20015KT 03/01 A3008 RMK A01 T00270007  RH  086%=      5-min Rain = 0
KSP2 150555Z 20017KT 03/01 A3008 RMK A01 T00270007  RH  086%=      5-min Rain = 0
KSP2 150556Z 20017KT 03/01 A3008 RMK A01 T00270007  RH  086%=      5-min Rain = 0
KSP2 150557Z 20016KT 03/01 A3008 RMK A01 T00280007  RH  086%=      5-min Rain = 0
KSP2 150558Z 20016KT 03/01 A3008 RMK A01 T00280007  RH  086%=      5-min Rain = 0
KSP2 150559Z 20016KT 03/01 A3008 RMK A01 T00280007  RH  086%=      5-min Rain = 0

Page generated in 0.1868 seconds.